Time,TemperatureF,DewpointF,PressureIn,WindDirection,WindDirectionDegrees,WindSpeedMPH,WindSpeedGustMPH,Humidity,HourlyPrecipIn,Conditions,Clouds,dailyrainin,SoftwareType,DateUTC
2013-07-18 00:00:00,76.0,72.2,30.06,NW,319,0.0,0.0,88,0.00,,---,0.00,VWS V14.01,2013-07-18 04:00:00,
2013-07-18 00:01:00,76.0,72.2,30.06,NW,319,0.0,0.0,88,0.00,,---,0.00,VWS V14.01,2013-07-18 04:01:00,
2013-07-18 00:06:00,75.8,72.0,30.07,NW,319,0.0,0.0,88,0.00,,---,0.00,VWS V14.01,2013-07-18 04:06:00,
2013-07-18 00:11:00,75.8,72.0,30.07,NW,319,0.0,0.0,88,0.00,,---,0.00,VWS V14.01,2013-07-18 04:11:00,
2013-07-18 00:16:00,75.6,71.8,30.07,NW,319,0.0,0.0,88,0.00,,---,0.00,VWS V14.01,2013-07-18 04:16:00,
2013-07-18 00:21:00,75.4,71.6,30.07,NW,319,0.0,0.0,88,0.00,,---,0.00,VWS V14.01,2013-07-18 04:21:00,
2013-07-18 00:26:00,75.4,71.6,30.07,NW,319,0.0,0.0,88,0.00,,---,0.00,VWS V14.01,2013-07-18 04:26:00,
2013-07-18 00:31:00,75.3,71.5,30.07,NW,319,0.0,0.0,88,0.00,,---,0.00,VWS V14.01,2013-07-18 04:31:00,
2013-07-18 00:36:00,75.3,71.8,30.07,NW,319,0.0,0.0,89,0.00,,---,0.00,VWS V14.01,2013-07-18 04:36:00,
2013-07-18 00:41:00,75.3,71.8,30.07,NW,319,0.0,0.0,89,0.00,,---,0.00,VWS V14.01,2013-07-18 04:41:00,
2013-07-18 00:42:00,75.3,71.8,30.07,NW,319,0.0,0.0,89,0.00,,---,0.00,VWS V14.01,2013-07-18 04:42:00,
2013-07-18 00:46:00,75.3,72.2,30.07,NW,319,0.0,0.0,90,0.00,,---,0.00,VWS V14.01,2013-07-18 04:46:00,
2013-07-18 00:47:00,75.3,72.2,30.07,NW,319,0.0,0.0,90,0.00,,---,0.00,VWS V14.01,2013-07-18 04:47:00,
2013-07-18 00:51:00,75.1,72.0,30.06,NW,319,0.0,0.0,90,0.00,,---,0.00,VWS V14.01,2013-07-18 04:51:00,
2013-07-18 00:52:00,75.1,72.0,30.06,NW,319,0.0,0.0,90,0.00,,---,0.00,VWS V14.01,2013-07-18 04:52:00,
2013-07-18 00:56:00,75.1,72.0,30.06,NW,319,0.0,0.0,90,0.00,,---,0.00,VWS V14.01,2013-07-18 04:56:00,
2013-07-18 00:57:00,75.1,72.0,30.06,NW,319,0.0,0.0,90,0.00,,---,0.00,VWS V14.01,2013-07-18 04:57:00,
2013-07-18 01:01:00,75.1,72.0,30.06,NW,319,0.0,0.0,90,0.00,,---,0.00,VWS V14.01,2013-07-18 05:01:00,
2013-07-18 01:02:00,74.9,71.8,30.06,NW,319,0.0,0.0,90,0.00,,---,0.00,VWS V14.01,2013-07-18 05:02:00,
2013-07-18 01:06:00,74.9,71.8,30.06,NW,319,0.0,0.0,90,0.00,,---,0.00,VWS V14.01,2013-07-18 05:06:00,
2013-07-18 01:07:00,74.9,71.8,30.06,NW,319,0.0,0.0,90,0.00,,---,0.00,VWS V14.01,2013-07-18 05:07:00,
2013-07-18 01:11:00,74.9,71.8,30.06,NW,319,0.0,0.0,90,0.00,,---,0.00,VWS V14.01,2013-07-18 05:11:00,
2013-07-18 01:12:00,74.9,71.8,30.06,NW,319,0.0,0.0,90,0.00,,---,0.00,VWS V14.01,2013-07-18 05:12:00,
2013-07-18 01:16:00,74.9,72.1,30.06,NW,319,0.0,0.0,91,0.00,,---,0.00,VWS V14.01,2013-07-18 05:16:00,
2013-07-18 01:17:00,74.9,72.1,30.06,NW,319,0.0,0.0,91,0.00,,---,0.00,VWS V14.01,2013-07-18 05:17:00,
2013-07-18 01:22:00,74.9,72.1,30.06,NW,319,0.0,0.0,91,0.00,,---,0.00,VWS V14.01,2013-07-18 05:22:00,
2013-07-18 01:27:00,74.9,72.1,30.06,NW,319,0.0,0.0,91,0.00,,---,0.00,VWS V14.01,2013-07-18 05:27:00,
2013-07-18 01:32:00,74.9,72.4,30.06,NW,319,0.0,0.0,92,0.00,,---,0.00,VWS V14.01,2013-07-18 05:32:00,
2013-07-18 01:33:00,74.9,72.4,30.06,NW,319,0.0,0.0,92,0.00,,---,0.00,VWS V14.01,2013-07-18 05:33:00,
2013-07-18 01:37:00,75.1,72.6,30.06,NW,319,0.0,0.0,92,0.00,,---,0.00,VWS V14.01,2013-07-18 05:37:00,
2013-07-18 01:38:00,75.1,72.6,30.06,NW,319,0.0,0.0,92,0.00,,---,0.00,VWS V14.01,2013-07-18 05:38:00,
2013-07-18 01:42:00,75.1,72.9,30.06,NW,319,0.0,0.0,93,0.00,,---,0.00,VWS V14.01,2013-07-18 05:42:00,
2013-07-18 01:43:00,75.1,72.9,30.06,NW,319,0.0,0.0,93,0.00,,---,0.00,VWS V14.01,2013-07-18 05:43:00,
2013-07-18 01:47:00,75.1,72.9,30.06,NW,319,0.0,0.0,93,0.00,,---,0.00,VWS V14.01,2013-07-18 05:47:00,
2013-07-18 01:48:00,75.1,72.9,30.06,NW,319,0.0,0.0,93,0.00,,---,0.00,VWS V14.01,2013-07-18 05:48:00,
2013-07-18 01:52:00,75.1,72.9,30.06,NW,319,0.0,0.0,93,0.00,,---,0.00,VWS V14.01,2013-07-18 05:52:00,
2013-07-18 01:53:00,75.1,72.9,30.06,NW,319,0.0,0.0,93,0.00,,---,0.00,VWS V14.01,2013-07-18 05:53:00,
2013-07-18 01:57:00,75.3,73.1,30.06,NW,319,0.0,1.0,93,0.00,,---,0.00,VWS V14.01,2013-07-18 05:57:00,
2013-07-18 01:58:00,75.3,73.1,30.06,NW,319,0.0,1.0,93,0.00,,---,0.00,VWS V14.01,2013-07-18 05:58:00,
2013-07-18 02:02:00,75.3,73.1,30.06,NW,319,0.0,0.0,93,0.00,,---,0.00,VWS V14.01,2013-07-18 06:02:00,
2013-07-18 02:03:00,75.3,73.1,30.06,NW,319,0.0,0.0,93,0.00,,---,0.00,VWS V14.01,2013-07-18 06:03:00,
2013-07-18 02:07:00,75.3,73.1,30.06,NW,319,0.0,0.0,93,0.00,,---,0.00,VWS V14.01,2013-07-18 06:07:00,
2013-07-18 02:08:00,75.3,73.1,30.06,NW,319,0.0,0.0,93,0.00,,---,0.00,VWS V14.01,2013-07-18 06:08:00,
2013-07-18 02:12:00,75.1,72.9,30.06,NW,319,0.0,0.0,93,0.00,,---,0.00,VWS V14.01,2013-07-18 06:12:00,
2013-07-18 02:13:00,75.1,72.9,30.06,NW,319,0.0,1.0,93,0.00,,---,0.00,VWS V14.01,2013-07-18 06:13:00,
2013-07-18 02:17:00,75.1,72.9,30.05,NW,319,0.0,0.0,93,0.00,,---,0.00,VWS V14.01,2013-07-18 06:17:00,
2013-07-18 02:18:00,75.1,72.9,30.05,NW,319,0.0,0.0,93,0.00,,---,0.00,VWS V14.01,2013-07-18 06:18:00,
2013-07-18 02:22:00,75.1,72.9,30.05,NW,319,0.0,0.0,93,0.00,,---,0.00,VWS V14.01,2013-07-18 06:22:00,
2013-07-18 02:23:00,75.1,72.9,30.05,NW,319,0.0,0.0,93,0.00,,---,0.00,VWS V14.01,2013-07-18 06:23:00,
2013-07-18 02:27:00,75.1,72.9,30.05,NW,319,0.0,0.0,93,0.00,,---,0.00,VWS V14.01,2013-07-18 06:27:00,
2013-07-18 02:28:00,75.1,72.9,30.05,NW,319,0.0,0.0,93,0.00,,---,0.00,VWS V14.01,2013-07-18 06:28:00,
2013-07-18 02:33:00,75.1,72.9,30.04,NW,319,0.0,0.0,93,0.00,,---,0.00,VWS V14.01,2013-07-18 06:33:00,
2013-07-18 02:38:00,74.9,72.7,30.04,NW,319,0.0,0.0,93,0.00,,---,0.00,VWS V14.01,2013-07-18 06:38:00,
2013-07-18 02:43:00,74.9,72.7,30.04,NW,319,0.0,0.0,93,0.00,,---,0.00,VWS V14.01,2013-07-18 06:43:00,
2013-07-18 02:48:00,74.9,72.7,30.04,NW,319,0.0,0.0,93,0.00,,---,0.00,VWS V14.01,2013-07-18 06:48:00,
2013-07-18 02:49:00,74.9,72.7,30.04,NW,319,0.0,0.0,93,0.00,,---,0.00,VWS V14.01,2013-07-18 06:49:00,
2013-07-18 02:53:00,74.7,72.6,30.04,NW,319,0.0,0.0,93,0.00,,---,0.00,VWS V14.01,2013-07-18 06:53:00,
2013-07-18 02:54:00,74.7,72.6,30.04,NW,319,0.0,0.0,93,0.00,,---,0.00,VWS V14.01,2013-07-18 06:54:00,
2013-07-18 02:58:00,74.7,72.2,30.04,NW,319,0.0,0.0,92,0.00,,---,0.00,VWS V14.01,2013-07-18 06:58:00,
2013-07-18 02:59:00,74.6,72.1,30.04,NW,319,0.0,0.0,92,0.00,,---,0.00,VWS V14.01,2013-07-18 06:59:00,
2013-07-18 03:03:00,74.6,72.1,30.04,NW,319,0.0,0.0,92,0.00,,---,0.00,VWS V14.01,2013-07-18 07:03:00,
2013-07-18 03:04:00,74.6,72.1,30.04,NW,319,0.0,0.0,92,0.00,,---,0.00,VWS V14.01,2013-07-18 07:04:00,
2013-07-18 03:08:00,74.6,72.1,30.04,NW,319,0.0,0.0,92,0.00,,---,0.00,VWS V14.01,2013-07-18 07:08:00,
2013-07-18 03:09:00,74.6,72.1,30.04,NW,319,0.0,0.0,92,0.00,,---,0.00,VWS V14.01,2013-07-18 07:09:00,
2013-07-18 03:13:00,74.4,71.9,30.04,NW,319,0.0,0.0,92,0.00,,---,0.00,VWS V14.01,2013-07-18 07:13:00,
2013-07-18 03:14:00,74.4,71.9,30.04,NW,319,0.0,0.0,92,0.00,,---,0.00,VWS V14.01,2013-07-18 07:14:00,
2013-07-18 03:18:00,74.4,71.9,30.05,NW,319,0.0,0.0,92,0.00,,---,0.00,VWS V14.01,2013-07-18 07:18:00,
2013-07-18 03:19:00,74.2,71.7,30.05,NW,319,0.0,0.0,92,0.00,,---,0.00,VWS V14.01,2013-07-18 07:19:00,
2013-07-18 03:23:00,74.2,71.7,30.05,NW,319,0.0,0.0,92,0.00,,---,0.00,VWS V14.01,2013-07-18 07:23:00,
2013-07-18 03:24:00,74.2,71.7,30.05,NW,319,0.0,0.0,92,0.00,,---,0.00,VWS V14.01,2013-07-18 07:24:00,
2013-07-18 03:28:00,74.0,71.5,30.05,NW,319,0.0,0.0,92,0.00,,---,0.00,VWS V14.01,2013-07-18 07:28:00,
2013-07-18 03:29:00,74.0,71.5,30.05,NW,319,0.0,0.0,92,0.00,,---,0.00,VWS V14.01,2013-07-18 07:29:00,
2013-07-18 03:33:00,73.9,71.4,30.05,NW,319,0.0,0.0,92,0.00,,---,0.00,VWS V14.01,2013-07-18 07:33:00,
2013-07-18 03:34:00,73.9,71.4,30.05,NW,319,0.0,0.0,92,0.00,,---,0.00,VWS V14.01,2013-07-18 07:34:00,
2013-07-18 03:38:00,73.9,71.4,30.05,NW,319,0.0,0.0,92,0.00,,---,0.00,VWS V14.01,2013-07-18 07:38:00,
2013-07-18 03:39:00,73.9,71.4,30.05,NW,319,0.0,0.0,92,0.00,,---,0.00,VWS V14.01,2013-07-18 07:39:00,
2013-07-18 03:43:00,73.7,71.2,30.05,NW,319,0.0,0.0,92,0.00,,---,0.00,VWS V14.01,2013-07-18 07:43:00,
2013-07-18 03:44:00,73.7,71.2,30.05,NW,319,0.0,0.0,92,0.00,,---,0.00,VWS V14.01,2013-07-18 07:44:00,
2013-07-18 03:48:00,73.7,71.2,30.05,NW,319,0.0,0.0,92,0.00,,---,0.00,VWS V14.01,2013-07-18 07:48:00,
2013-07-18 03:49:00,73.7,71.2,30.05,NW,319,0.0,0.0,92,0.00,,---,0.00,VWS V14.01,2013-07-18 07:49:00,
2013-07-18 03:53:00,73.5,71.0,30.05,NW,319,0.0,0.0,92,0.00,,---,0.00,VWS V14.01,2013-07-18 07:53:00,
2013-07-18 03:54:00,73.5,71.0,30.05,NW,319,0.0,0.0,92,0.00,,---,0.00,VWS V14.01,2013-07-18 07:54:00,
2013-07-18 03:55:00,73.5,71.0,30.05,NW,319,0.0,0.0,92,0.00,,---,0.00,VWS V14.01,2013-07-18 07:55:00,
2013-07-18 03:59:00,73.5,71.0,30.05,NW,319,0.0,0.0,92,0.00,,---,0.00,VWS V14.01,2013-07-18 07:59:00,
2013-07-18 04:00:00,73.5,71.0,30.05,NW,319,0.0,0.0,92,0.00,,---,0.00,VWS V14.01,2013-07-18 08:00:00,
2013-07-18 04:04:00,73.3,70.8,30.04,NW,319,0.0,0.0,92,0.00,,---,0.00,VWS V14.01,2013-07-18 08:04:00,
2013-07-18 04:05:00,73.3,70.8,30.04,NW,319,0.0,0.0,92,0.00,,---,0.00,VWS V14.01,2013-07-18 08:05:00,
2013-07-18 04:09:00,73.3,70.8,30.04,NW,319,0.0,0.0,92,0.00,,---,0.00,VWS V14.01,2013-07-18 08:09:00,
2013-07-18 04:10:00,73.2,70.7,30.04,NW,319,0.0,0.0,92,0.00,,---,0.00,VWS V14.01,2013-07-18 08:10:00,
2013-07-18 04:14:00,73.2,70.7,30.04,NW,319,0.0,0.0,92,0.00,,---,0.00,VWS V14.01,2013-07-18 08:14:00,
2013-07-18 04:15:00,73.2,70.7,30.04,NW,319,0.0,0.0,92,0.00,,---,0.00,VWS V14.01,2013-07-18 08:15:00,
2013-07-18 04:19:00,73.0,70.5,30.05,NW,319,0.0,0.0,92,0.00,,---,0.00,VWS V14.01,2013-07-18 08:19:00,
2013-07-18 04:20:00,73.0,70.5,30.05,NW,319,0.0,0.0,92,0.00,,---,0.00,VWS V14.01,2013-07-18 08:20:00,
2013-07-18 04:24:00,73.0,70.5,30.05,NW,319,0.0,0.0,92,0.00,,---,0.00,VWS V14.01,2013-07-18 08:24:00,
2013-07-18 04:25:00,73.0,70.5,30.05,NW,319,0.0,0.0,92,0.00,,---,0.00,VWS V14.01,2013-07-18 08:25:00,
2013-07-18 04:29:00,73.0,70.5,30.05,NW,319,0.0,0.0,92,0.00,,---,0.00,VWS V14.01,2013-07-18 08:29:00,
2013-07-18 04:30:00,73.0,70.5,30.05,NW,319,0.0,0.0,92,0.00,,---,0.00,VWS V14.01,2013-07-18 08:30:00,
2013-07-18 04:34:00,72.8,70.3,30.05,NW,319,0.0,0.0,92,0.00,,---,0.00,VWS V14.01,2013-07-18 08:34:00,
2013-07-18 04:35:00,72.8,70.3,30.05,NW,319,0.0,0.0,92,0.00,,---,0.00,VWS V14.01,2013-07-18 08:35:00,
2013-07-18 04:39:00,72.8,70.3,30.05,NW,319,0.0,0.0,92,0.00,,---,0.00,VWS V14.01,2013-07-18 08:39:00,
2013-07-18 04:40:00,72.8,70.3,30.05,NW,319,0.0,0.0,92,0.00,,---,0.00,VWS V14.01,2013-07-18 08:40:00,
2013-07-18 04:44:00,72.7,70.6,30.05,NW,319,0.0,0.0,93,0.00,,---,0.00,VWS V14.01,2013-07-18 08:44:00,
2013-07-18 04:45:00,72.7,70.6,30.05,NW,319,0.0,0.0,93,0.00,,---,0.00,VWS V14.01,2013-07-18 08:45:00,
2013-07-18 04:49:00,72.7,70.6,30.05,NW,319,0.0,0.0,93,0.00,,---,0.00,VWS V14.01,2013-07-18 08:49:00,
2013-07-18 04:50:00,72.7,70.6,30.05,NW,319,0.0,0.0,93,0.00,,---,0.00,VWS V14.01,2013-07-18 08:50:00,
2013-07-18 04:54:00,72.7,70.6,30.05,NW,319,0.0,0.0,93,0.00,,---,0.00,VWS V14.01,2013-07-18 08:54:00,
2013-07-18 04:55:00,72.7,70.6,30.05,NW,319,0.0,0.0,93,0.00,,---,0.00,VWS V14.01,2013-07-18 08:55:00,
2013-07-18 04:59:00,72.7,70.6,30.05,NW,319,0.0,0.0,93,0.00,,---,0.00,VWS V14.01,2013-07-18 08:59:00,
2013-07-18 05:00:00,72.7,70.6,30.05,NW,319,0.0,0.0,93,0.00,,---,0.00,VWS V14.01,2013-07-18 09:00:00,
2013-07-18 05:01:00,72.7,70.6,30.05,NW,319,0.0,0.0,93,0.00,,---,0.00,VWS V14.01,2013-07-18 09:01:00,
2013-07-18 05:04:00,72.7,70.9,30.05,NW,319,0.0,0.0,94,0.00,,---,0.00,VWS V14.01,2013-07-18 09:04:00,
2013-07-18 05:05:00,72.7,70.9,30.05,NW,319,0.0,0.0,94,0.00,,---,0.00,VWS V14.01,2013-07-18 09:05:00,
2013-07-18 05:06:00,72.7,70.9,30.05,NW,319,0.0,0.0,94,0.00,,---,0.00,VWS V14.01,2013-07-18 09:06:00,
2013-07-18 05:09:00,72.7,70.9,30.05,NW,319,0.0,0.0,94,0.00,,---,0.00,VWS V14.01,2013-07-18 09:09:00,
2013-07-18 05:10:00,72.7,70.9,30.05,NW,319,0.0,0.0,94,0.00,,---,0.00,VWS V14.01,2013-07-18 09:10:00,
2013-07-18 05:11:00,72.7,70.9,30.05,NW,319,0.0,0.0,94,0.00,,---,0.00,VWS V14.01,2013-07-18 09:11:00,
2013-07-18 05:14:00,72.7,70.9,30.05,NW,319,0.0,0.0,94,0.00,,---,0.00,VWS V14.01,2013-07-18 09:14:00,
2013-07-18 05:15:00,72.7,70.9,30.05,NW,319,0.0,0.0,94,0.00,,---,0.00,VWS V14.01,2013-07-18 09:15:00,
2013-07-18 05:16:00,72.7,70.9,30.05,NW,319,0.0,0.0,94,0.00,,---,0.00,VWS V14.01,2013-07-18 09:16:00,
2013-07-18 05:19:00,72.7,70.9,30.05,NW,319,0.0,0.0,94,0.00,,---,0.00,VWS V14.01,2013-07-18 09:19:00,
2013-07-18 05:20:00,72.7,70.9,30.05,NW,319,0.0,0.0,94,0.00,,---,0.00,VWS V14.01,2013-07-18 09:20:00,
2013-07-18 05:21:00,72.7,70.9,30.05,NW,319,0.0,0.0,94,0.00,,---,0.00,VWS V14.01,2013-07-18 09:21:00,
2013-07-18 05:24:00,72.7,70.9,30.05,NW,319,0.0,0.0,94,0.00,,---,0.00,VWS V14.01,2013-07-18 09:24:00,
2013-07-18 05:25:00,72.7,70.9,30.05,NW,319,0.0,0.0,94,0.00,,---,0.00,VWS V14.01,2013-07-18 09:25:00,
2013-07-18 05:26:00,72.7,70.9,30.05,NW,319,0.0,0.0,94,0.00,,---,0.00,VWS V14.01,2013-07-18 09:26:00,
2013-07-18 05:30:00,72.5,70.7,30.05,NW,319,0.0,0.0,94,0.00,,---,0.00,VWS V14.01,2013-07-18 09:30:00,
2013-07-18 05:31:00,72.5,70.7,30.05,NW,319,0.0,0.0,94,0.00,,---,0.00,VWS V14.01,2013-07-18 09:31:00,
2013-07-18 05:35:00,72.5,70.7,30.05,NW,319,0.0,0.0,94,0.00,,---,0.00,VWS V14.01,2013-07-18 09:35:00,
2013-07-18 05:36:00,72.3,70.5,30.05,NW,319,0.0,0.0,94,0.00,,---,0.00,VWS V14.01,2013-07-18 09:36:00,
2013-07-18 05:40:00,72.3,70.5,30.05,NW,319,0.0,0.0,94,0.00,,---,0.00,VWS V14.01,2013-07-18 09:40:00,
2013-07-18 05:41:00,72.3,70.5,30.05,NW,319,0.0,0.0,94,0.00,,---,0.00,VWS V14.01,2013-07-18 09:41:00,
2013-07-18 05:45:00,72.3,70.5,30.05,NW,319,0.0,0.0,94,0.00,,---,0.00,VWS V14.01,2013-07-18 09:45:00,
2013-07-18 05:46:00,72.1,70.3,30.05,NW,319,0.0,0.0,94,0.00,,---,0.00,VWS V14.01,2013-07-18 09:46:00,
2013-07-18 05:50:00,72.1,70.3,30.05,NW,319,0.0,0.0,94,0.00,,---,0.00,VWS V14.01,2013-07-18 09:50:00,
2013-07-18 05:51:00,72.1,70.3,30.05,NW,319,0.0,0.0,94,0.00,,---,0.00,VWS V14.01,2013-07-18 09:51:00,
2013-07-18 05:55:00,72.1,70.3,30.05,NW,319,0.0,0.0,94,0.00,,---,0.00,VWS V14.01,2013-07-18 09:55:00,
2013-07-18 05:56:00,72.1,70.3,30.05,NW,319,0.0,0.0,94,0.00,,---,0.00,VWS V14.01,2013-07-18 09:56:00,
2013-07-18 05:57:00,72.1,70.3,30.05,NW,319,0.0,0.0,94,0.00,,---,0.00,VWS V14.01,2013-07-18 09:57:00,
2013-07-18 06:00:00,72.0,70.2,30.05,NW,319,0.0,0.0,94,0.00,,---,0.00,VWS V14.01,2013-07-18 10:00:00,
2013-07-18 06:01:00,72.0,70.2,30.05,NW,319,0.0,0.0,94,0.00,,---,0.00,VWS V14.01,2013-07-18 10:01:00,
2013-07-18 06:02:00,72.0,70.2,30.05,NW,319,0.0,0.0,94,0.00,,---,0.00,VWS V14.01,2013-07-18 10:02:00,
2013-07-18 06:05:00,72.0,70.5,30.05,NW,319,0.0,0.0,95,0.00,,---,0.00,VWS V14.01,2013-07-18 10:05:00,
2013-07-18 06:06:00,72.0,70.5,30.05,NW,319,0.0,0.0,95,0.00,,---,0.00,VWS V14.01,2013-07-18 10:06:00,
2013-07-18 06:07:00,72.0,70.5,30.05,NW,319,0.0,0.0,95,0.00,,---,0.00,VWS V14.01,2013-07-18 10:07:00,
2013-07-18 06:11:00,72.0,70.5,30.05,NW,319,0.0,0.0,95,0.00,,---,0.00,VWS V14.01,2013-07-18 10:11:00,
2013-07-18 06:12:00,72.0,70.5,30.05,NW,319,0.0,1.0,95,0.00,,---,0.00,VWS V14.01,2013-07-18 10:12:00,
2013-07-18 06:16:00,72.0,70.5,30.05,NW,319,0.0,0.0,95,0.00,,---,0.00,VWS V14.01,2013-07-18 10:16:00,
2013-07-18 06:17:00,72.0,70.5,30.05,NW,319,0.0,0.0,95,0.00,,---,0.00,VWS V14.01,2013-07-18 10:17:00,
2013-07-18 06:21:00,72.0,70.5,30.06,NW,319,0.0,0.0,95,0.00,,---,0.00,VWS V14.01,2013-07-18 10:21:00,
2013-07-18 06:22:00,72.0,70.5,30.06,NW,319,0.0,0.0,95,0.00,,---,0.00,VWS V14.01,2013-07-18 10:22:00,
2013-07-18 06:26:00,71.8,70.3,30.06,NW,319,0.0,0.0,95,0.00,,---,0.00,VWS V14.01,2013-07-18 10:26:00,
2013-07-18 06:27:00,71.8,70.3,30.06,NW,319,0.0,0.0,95,0.00,,---,0.00,VWS V14.01,2013-07-18 10:27:00,
2013-07-18 06:31:00,71.8,70.3,30.06,NW,319,0.0,0.0,95,0.00,,---,0.00,VWS V14.01,2013-07-18 10:31:00,
2013-07-18 06:32:00,72.0,70.5,30.06,NW,319,0.0,0.0,95,0.00,,---,0.00,VWS V14.01,2013-07-18 10:32:00,
2013-07-18 06:36:00,72.0,70.8,30.06,NW,319,0.0,0.0,96,0.00,,---,0.00,VWS V14.01,2013-07-18 10:36:00,
2013-07-18 06:37:00,72.0,70.8,30.06,NW,319,0.0,0.0,96,0.00,,---,0.00,VWS V14.01,2013-07-18 10:37:00,
2013-07-18 06:38:00,72.0,70.8,30.06,NW,319,0.0,0.0,96,0.00,,---,0.00,VWS V14.01,2013-07-18 10:38:00,
2013-07-18 06:41:00,72.1,70.9,30.06,NW,319,0.0,0.0,96,0.00,,---,0.00,VWS V14.01,2013-07-18 10:41:00,
2013-07-18 06:42:00,72.3,71.1,30.06,NW,319,0.0,0.0,96,0.00,,---,0.00,VWS V14.01,2013-07-18 10:42:00,
2013-07-18 06:43:00,72.3,71.1,30.06,NW,319,0.0,0.0,96,0.00,,---,0.00,VWS V14.01,2013-07-18 10:43:00,
2013-07-18 06:46:00,72.5,71.3,30.06,NW,319,0.0,0.0,96,0.00,,---,0.00,VWS V14.01,2013-07-18 10:46:00,
2013-07-18 06:47:00,72.7,71.5,30.06,NW,319,0.0,0.0,96,0.00,,---,0.00,VWS V14.01,2013-07-18 10:47:00,
2013-07-18 06:48:00,72.7,71.5,30.06,NW,319,0.0,0.0,96,0.00,,---,0.00,VWS V14.01,2013-07-18 10:48:00,
2013-07-18 06:51:00,72.8,71.6,30.06,NW,319,0.0,0.0,96,0.00,,---,0.00,VWS V14.01,2013-07-18 10:51:00,
2013-07-18 06:52:00,72.8,71.9,30.06,NW,319,0.0,0.0,97,0.00,,---,0.00,VWS V14.01,2013-07-18 10:52:00,
2013-07-18 06:53:00,73.0,72.1,30.06,NW,319,0.0,0.0,97,0.00,,---,0.00,VWS V14.01,2013-07-18 10:53:00,
2013-07-18 06:56:00,73.2,72.3,30.06,NW,319,0.0,0.0,97,0.00,,---,0.00,VWS V14.01,2013-07-18 10:56:00,
2013-07-18 06:57:00,73.2,72.3,30.06,NW,319,0.0,0.0,97,0.00,,---,0.00,VWS V14.01,2013-07-18 10:57:00,
2013-07-18 06:58:00,73.3,72.4,30.06,NW,319,0.0,0.0,97,0.00,,---,0.00,VWS V14.01,2013-07-18 10:58:00,
2013-07-18 07:01:00,73.7,72.8,30.06,NW,319,0.0,0.0,97,0.00,,---,0.00,VWS V14.01,2013-07-18 11:01:00,
2013-07-18 07:02:00,73.9,73.0,30.06,NW,319,0.0,0.0,97,0.00,,---,0.00,VWS V14.01,2013-07-18 11:02:00,
2013-07-18 07:03:00,73.9,73.0,30.06,NW,319,0.0,0.0,97,0.00,,---,0.00,VWS V14.01,2013-07-18 11:03:00,
2013-07-18 07:06:00,74.0,73.1,30.06,NW,319,0.0,0.0,97,0.00,,---,0.00,VWS V14.01,2013-07-18 11:06:00,
2013-07-18 07:07:00,74.0,73.1,30.06,NW,319,0.0,0.0,97,0.00,,---,0.00,VWS V14.01,2013-07-18 11:07:00,
2013-07-18 07:08:00,74.2,73.3,30.06,NW,319,0.0,0.0,97,0.00,,---,0.00,VWS V14.01,2013-07-18 11:08:00,
2013-07-18 07:11:00,74.4,73.5,30.06,NW,319,0.0,0.0,97,0.00,,---,0.00,VWS V14.01,2013-07-18 11:11:00,
2013-07-18 07:12:00,74.6,74.0,30.06,NW,319,0.0,0.0,98,0.00,,---,0.00,VWS V14.01,2013-07-18 11:12:00,
2013-07-18 07:13:00,74.6,74.0,30.06,NW,319,0.0,0.0,98,0.00,,---,0.00,VWS V14.01,2013-07-18 11:13:00,
2013-07-18 07:16:00,74.7,73.8,30.06,NW,319,0.0,0.0,97,0.00,,---,0.00,VWS V14.01,2013-07-18 11:16:00,
2013-07-18 07:17:00,74.7,73.8,30.06,NW,319,0.0,0.0,97,0.00,,---,0.00,VWS V14.01,2013-07-18 11:17:00,
2013-07-18 07:18:00,74.9,74.0,30.06,NW,319,0.0,0.0,97,0.00,,---,0.00,VWS V14.01,2013-07-18 11:18:00,
2013-07-18 07:21:00,75.1,74.2,30.06,NW,319,0.0,0.0,97,0.00,,---,0.00,VWS V14.01,2013-07-18 11:21:00,
2013-07-18 07:22:00,75.1,74.2,30.06,NW,319,0.0,0.0,97,0.00,,---,0.00,VWS V14.01,2013-07-18 11:22:00,
2013-07-18 07:23:00,75.3,74.4,30.06,NW,319,0.0,0.0,97,0.00,,---,0.00,VWS V14.01,2013-07-18 11:23:00,
2013-07-18 07:27:00,75.6,74.7,30.06,NW,319,0.0,0.0,97,0.00,,---,0.00,VWS V14.01,2013-07-18 11:27:00,
2013-07-18 07:28:00,75.6,74.7,30.06,NW,319,0.0,1.0,97,0.00,,---,0.00,VWS V14.01,2013-07-18 11:28:00,
2013-07-18 07:32:00,75.8,74.9,30.06,NW,319,0.0,0.0,97,0.00,,---,0.00,VWS V14.01,2013-07-18 11:32:00,
2013-07-18 07:33:00,76.0,74.8,30.06,NW,319,0.0,0.0,96,0.00,,---,0.00,VWS V14.01,2013-07-18 11:33:00,
2013-07-18 07:37:00,76.3,75.1,30.06,NW,319,0.0,0.0,96,0.00,,---,0.00,VWS V14.01,2013-07-18 11:37:00,
2013-07-18 07:38:00,76.3,74.8,30.06,NW,319,0.0,0.0,95,0.00,,---,0.00,VWS V14.01,2013-07-18 11:38:00,
2013-07-18 07:42:00,76.7,74.8,30.06,NW,319,0.0,0.0,94,0.00,,---,0.00,VWS V14.01,2013-07-18 11:42:00,
2013-07-18 07:43:00,76.8,74.6,30.06,NW,319,0.0,0.0,93,0.00,,---,0.00,VWS V14.01,2013-07-18 11:43:00,
2013-07-18 07:44:00,76.8,74.6,30.06,NW,319,0.0,0.0,93,0.00,,---,0.00,VWS V14.01,2013-07-18 11:44:00,
2013-07-18 07:47:00,77.2,74.4,30.06,NW,319,0.0,1.0,91,0.00,,---,0.00,VWS V14.01,2013-07-18 11:47:00,
2013-07-18 07:48:00,77.2,74.4,30.06,NW,319,0.0,2.0,91,0.00,,---,0.00,VWS V14.01,2013-07-18 11:48:00,
2013-07-18 07:49:00,77.4,74.2,30.06,NW,319,0.0,1.0,90,0.00,,---,0.00,VWS V14.01,2013-07-18 11:49:00,
2013-07-18 07:52:00,77.7,74.2,30.06,NW,319,0.0,0.0,89,0.00,,---,0.00,VWS V14.01,2013-07-18 11:52:00,
2013-07-18 07:53:00,77.9,74.1,30.06,NW,319,0.0,1.0,88,0.00,,---,0.00,VWS V14.01,2013-07-18 11:53:00,
2013-07-18 07:54:00,77.9,73.7,30.06,NW,317,4.0,5.0,87,0.00,,---,0.00,VWS V14.01,2013-07-18 11:54:00,
2013-07-18 07:57:00,78.5,74.0,30.06,NW,317,0.0,0.0,86,0.00,,---,0.00,VWS V14.01,2013-07-18 11:57:00,
2013-07-18 07:58:00,78.5,73.6,30.06,NW,317,0.0,1.0,85,0.00,,---,0.00,VWS V14.01,2013-07-18 11:58:00,
2013-07-18 07:59:00,78.6,73.7,30.06,NW,318,0.0,0.0,85,0.00,,---,0.00,VWS V14.01,2013-07-18 11:59:00,
2013-07-18 08:02:00,78.8,72.8,30.06,NNW,344,2.0,2.0,82,0.00,,---,0.00,VWS V14.01,2013-07-18 12:02:00,
2013-07-18 08:03:00,79.0,73.0,30.06,NNW,340,0.0,4.0,82,0.00,,---,0.00,VWS V14.01,2013-07-18 12:03:00,
2013-07-18 08:04:00,79.2,72.5,30.06,NNW,340,0.0,0.0,80,0.00,,---,0.00,VWS V14.01,2013-07-18 12:04:00,
2013-07-18 08:07:00,79.6,72.5,30.06,NNE,20,1.0,3.0,79,0.00,,---,0.00,VWS V14.01,2013-07-18 12:07:00,
2013-07-18 08:08:00,79.6,72.5,30.06,NNE,20,0.0,1.0,79,0.00,,---,0.00,VWS V14.01,2013-07-18 12:08:00,
2013-07-18 08:09:00,79.8,72.7,30.06,NNE,19,0.0,0.0,79,0.00,,---,0.00,VWS V14.01,2013-07-18 12:09:00,
2013-07-18 08:12:00,80.1,73.0,30.06,West,271,0.0,3.0,79,0.00,,---,0.00,VWS V14.01,2013-07-18 12:12:00,
2013-07-18 08:13:00,80.3,72.8,30.06,NW,313,1.0,1.0,78,0.00,,---,0.00,VWS V14.01,2013-07-18 12:13:00,
2013-07-18 08:14:00,80.3,72.8,30.06,NW,313,1.0,2.0,78,0.00,,---,0.00,VWS V14.01,2013-07-18 12:14:00,
2013-07-18 08:17:00,80.7,72.8,30.06,NNW,331,0.0,1.0,77,0.00,,---,0.00,VWS V14.01,2013-07-18 12:17:00,
2013-07-18 08:18:00,80.9,73.4,30.06,NNW,331,0.0,2.0,78,0.00,,---,0.00,VWS V14.01,2013-07-18 12:18:00,
2013-07-18 08:19:00,80.9,73.4,30.06,NNW,331,1.0,2.0,78,0.00,,---,0.00,VWS V14.01,2013-07-18 12:19:00,
2013-07-18 08:20:00,81.1,73.2,30.06,NNW,331,0.0,1.0,77,0.00,,---,0.00,VWS V14.01,2013-07-18 12:20:00,
2013-07-18 08:22:00,81.2,72.9,30.06,WNW,298,5.0,5.0,76,0.00,,---,0.00,VWS V14.01,2013-07-18 12:22:00,
2013-07-18 08:23:00,81.4,73.1,30.06,WNW,302,2.0,2.0,76,0.00,,---,0.00,VWS V14.01,2013-07-18 12:23:00,
2013-07-18 08:24:00,81.4,73.1,30.06,WNW,302,0.0,2.0,76,0.00,,---,0.00,VWS V14.01,2013-07-18 12:24:00,
2013-07-18 08:25:00,81.6,73.3,30.06,WNW,294,0.0,4.0,76,0.00,,---,0.00,VWS V14.01,2013-07-18 12:25:00,
2013-07-18 08:27:00,81.8,73.5,30.06,WNW,294,0.0,0.0,76,0.00,,---,0.00,VWS V14.01,2013-07-18 12:27:00,
2013-07-18 08:28:00,82.0,73.7,30.06,WNW,294,0.0,0.0,76,0.00,,---,0.00,VWS V14.01,2013-07-18 12:28:00,
2013-07-18 08:29:00,82.0,73.7,30.06,WNW,294,0.0,0.0,76,0.00,,---,0.00,VWS V14.01,2013-07-18 12:29:00,
2013-07-18 08:30:00,82.2,73.9,30.06,NW,320,0.0,2.0,76,0.00,,---,0.00,VWS V14.01,2013-07-18 12:30:00,
2013-07-18 08:32:00,82.4,73.3,30.06,NW,322,0.0,1.0,74,0.00,,---,0.00,VWS V14.01,2013-07-18 12:32:00,
2013-07-18 08:33:00,82.4,72.9,30.06,NW,322,0.0,0.0,73,0.00,,---,0.00,VWS V14.01,2013-07-18 12:33:00,
2013-07-18 08:34:00,82.4,73.3,30.06,NW,322,0.0,0.0,74,0.00,,---,0.00,VWS V14.01,2013-07-18 12:34:00,
2013-07-18 08:35:00,82.6,73.5,30.06,NW,322,0.0,0.0,74,0.00,,---,0.00,VWS V14.01,2013-07-18 12:35:00,
2013-07-18 08:37:00,82.8,73.3,30.06,WNW,291,0.0,0.0,73,0.00,,---,0.00,VWS V14.01,2013-07-18 12:37:00,
2013-07-18 08:38:00,82.8,73.3,30.06,NW,314,0.0,1.0,73,0.00,,---,0.00,VWS V14.01,2013-07-18 12:38:00,
2013-07-18 08:39:00,83.0,73.5,30.06,NW,314,0.0,1.0,73,0.00,,---,0.00,VWS V14.01,2013-07-18 12:39:00,
2013-07-18 08:40:00,83.0,73.5,30.06,NW,314,0.0,0.0,73,0.00,,---,0.00,VWS V14.01,2013-07-18 12:40:00,
2013-07-18 08:42:00,83.4,73.8,30.06,NE,40,4.0,4.0,73,0.00,,---,0.00,VWS V14.01,2013-07-18 12:42:00,
2013-07-18 08:43:00,83.4,73.4,30.06,NE,37,0.0,5.0,72,0.00,,---,0.00,VWS V14.01,2013-07-18 12:43:00,
2013-07-18 08:44:00,83.4,73.4,30.06,NW,321,2.0,3.0,72,0.00,,---,0.00,VWS V14.01,2013-07-18 12:44:00,
2013-07-18 08:45:00,83.4,73.4,30.06,North,9,2.0,6.0,72,0.00,,---,0.00,VWS V14.01,2013-07-18 12:45:00,
2013-07-18 08:48:00,83.8,74.2,30.07,North,5,0.0,0.0,73,0.00,,---,0.00,VWS V14.01,2013-07-18 12:48:00,
2013-07-18 08:49:00,83.8,73.8,30.07,NNW,333,3.0,5.0,72,0.00,,---,0.00,VWS V14.01,2013-07-18 12:49:00,
2013-07-18 08:50:00,84.0,73.6,30.07,NW,311,0.0,2.0,71,0.00,,---,0.00,VWS V14.01,2013-07-18 12:50:00,
2013-07-18 08:53:00,84.1,74.5,30.07,NW,314,1.0,4.0,73,0.00,,---,0.00,VWS V14.01,2013-07-18 12:53:00,
2013-07-18 08:54:00,84.1,73.7,30.07,NW,326,0.0,1.0,71,0.00,,---,0.00,VWS V14.01,2013-07-18 12:54:00,
2013-07-18 08:55:00,84.3,74.3,30.07,NW,319,4.0,4.0,72,0.00,,---,0.00,VWS V14.01,2013-07-18 12:55:00,
2013-07-18 08:58:00,84.5,74.1,30.07,SW,234,1.0,3.0,71,0.00,,---,0.00,VWS V14.01,2013-07-18 12:58:00,
2013-07-18 08:59:00,84.5,74.1,30.07,WSW,250,0.0,0.0,71,0.00,,---,0.00,VWS V14.01,2013-07-18 12:59:00,
2013-07-18 09:00:00,84.7,74.3,30.07,WSW,250,0.0,0.0,71,0.00,,---,0.00,VWS V14.01,2013-07-18 13:00:00,
2013-07-18 09:03:00,84.9,74.0,30.07,WSW,251,0.0,1.0,70,0.00,,---,0.00,VWS V14.01,2013-07-18 13:03:00,
2013-07-18 09:04:00,84.9,74.0,30.07,West,279,0.0,3.0,70,0.00,,---,0.00,VWS V14.01,2013-07-18 13:04:00,
2013-07-18 09:05:00,84.9,74.0,30.07,NW,308,6.0,6.0,70,0.00,,---,0.00,VWS V14.01,2013-07-18 13:05:00,
2013-07-18 09:08:00,85.1,74.2,30.07,NNW,331,0.0,0.0,70,0.00,,---,0.00,VWS V14.01,2013-07-18 13:08:00,
2013-07-18 09:09:00,85.3,74.0,30.07,NNW,333,3.0,4.0,69,0.00,,---,0.00,VWS V14.01,2013-07-18 13:09:00,
2013-07-18 09:11:00,85.3,74.0,30.07,NNW,333,0.0,2.0,69,0.00,,---,0.00,VWS V14.01,2013-07-18 13:11:00,
2013-07-18 09:13:00,85.5,74.2,30.07,NW,319,0.0,2.0,69,0.00,,---,0.00,VWS V14.01,2013-07-18 13:13:00,
2013-07-18 09:14:00,85.5,74.2,30.07,NW,319,0.0,2.0,69,0.00,,---,0.00,VWS V14.01,2013-07-18 13:14:00,
2013-07-18 09:15:00,85.7,73.9,30.07,NW,321,0.0,1.0,68,0.00,,---,0.00,VWS V14.01,2013-07-18 13:15:00,
2013-07-18 09:18:00,85.7,74.4,30.07,NNE,17,0.0,3.0,69,0.00,,---,0.00,VWS V14.01,2013-07-18 13:18:00,
2013-07-18 09:19:00,85.9,74.6,30.07,NNE,26,1.0,3.0,69,0.00,,---,0.00,VWS V14.01,2013-07-18 13:19:00,
2013-07-18 09:20:00,85.9,74.1,30.07,North,355,2.0,3.0,68,0.00,,---,0.00,VWS V14.01,2013-07-18 13:20:00,
2013-07-18 09:23:00,86.1,74.3,30.07,NW,308,6.0,6.0,68,0.00,,---,0.00,VWS V14.01,2013-07-18 13:23:00,
2013-07-18 09:24:00,86.1,74.3,30.07,NW,326,3.0,7.0,68,0.00,,---,0.00,VWS V14.01,2013-07-18 13:24:00,
2013-07-18 09:25:00,86.1,74.3,30.07,NNW,343,1.0,3.0,68,0.00,,---,0.00,VWS V14.01,2013-07-18 13:25:00,
2013-07-18 09:26:00,86.1,73.9,30.07,NNW,343,0.0,3.0,67,0.00,,---,0.00,VWS V14.01,2013-07-18 13:26:00,
2013-07-18 09:28:00,86.3,74.5,30.07,North,355,2.0,2.0,68,0.00,,---,0.00,VWS V14.01,2013-07-18 13:28:00,
2013-07-18 09:29:00,86.3,74.5,30.07,North,355,2.0,3.0,68,0.00,,---,0.00,VWS V14.01,2013-07-18 13:29:00,
2013-07-18 09:30:00,86.1,73.9,30.07,North,5,4.0,6.0,67,0.00,,---,0.00,VWS V14.01,2013-07-18 13:30:00,
2013-07-18 09:31:00,86.1,73.4,30.07,NW,317,1.0,10.0,66,0.00,,---,0.00,VWS V14.01,2013-07-18 13:31:00,
2013-07-18 09:33:00,86.1,74.3,30.07,NNW,341,0.0,1.0,68,0.00,,---,0.00,VWS V14.01,2013-07-18 13:33:00,
2013-07-18 09:34:00,86.1,74.3,30.07,NNW,341,0.0,1.0,68,0.00,,---,0.00,VWS V14.01,2013-07-18 13:34:00,
2013-07-18 09:35:00,86.3,74.9,30.07,WNW,300,0.0,0.0,69,0.00,,---,0.00,VWS V14.01,2013-07-18 13:35:00,
2013-07-18 09:36:00,86.3,74.9,30.07,WNW,302,1.0,1.0,69,0.00,,---,0.00,VWS V14.01,2013-07-18 13:36:00,
2013-07-18 09:38:00,86.3,74.5,30.07,NW,319,1.0,3.0,68,0.00,,---,0.00,VWS V14.01,2013-07-18 13:38:00,
2013-07-18 09:39:00,86.3,74.5,30.07,NW,319,1.0,1.0,68,0.00,,---,0.00,VWS V14.01,2013-07-18 13:39:00,
2013-07-18 09:40:00,86.3,74.5,30.07,NW,319,2.0,2.0,68,0.00,,---,0.00,VWS V14.01,2013-07-18 13:40:00,
2013-07-18 09:41:00,86.3,74.5,30.07,NW,319,0.0,2.0,68,0.00,,---,0.00,VWS V14.01,2013-07-18 13:41:00,
2013-07-18 09:43:00,86.3,75.4,30.07,WNW,297,4.0,7.0,70,0.00,,---,0.00,VWS V14.01,2013-07-18 13:43:00,
2013-07-18 09:44:00,86.5,75.6,30.07,WNW,297,3.0,3.0,70,0.00,,---,0.00,VWS V14.01,2013-07-18 13:44:00,
2013-07-18 09:45:00,86.5,76.0,30.07,WNW,297,0.0,0.0,71,0.00,,---,0.00,VWS V14.01,2013-07-18 13:45:00,
2013-07-18 09:46:00,86.5,76.0,30.07,NW,326,0.0,1.0,71,0.00,,---,0.00,VWS V14.01,2013-07-18 13:46:00,
2013-07-18 09:48:00,86.5,74.7,30.07,North,5,3.0,5.0,68,0.00,,---,0.00,VWS V14.01,2013-07-18 13:48:00,
2013-07-18 09:49:00,86.7,74.9,30.07,North,5,0.0,0.0,68,0.00,,---,0.00,VWS V14.01,2013-07-18 13:49:00,
2013-07-18 09:50:00,86.7,74.4,30.07,North,5,0.0,1.0,67,0.00,,---,0.00,VWS V14.01,2013-07-18 13:50:00,
2013-07-18 09:51:00,86.7,74.4,30.07,NW,307,1.0,1.0,67,0.00,,---,0.00,VWS V14.01,2013-07-18 13:51:00,
2013-07-18 09:54:00,87.0,75.6,30.07,West,278,1.0,5.0,69,0.00,,---,0.00,VWS V14.01,2013-07-18 13:54:00,
2013-07-18 09:56:00,87.0,75.2,30.07,WNW,296,3.0,6.0,68,0.00,,---,0.00,VWS V14.01,2013-07-18 13:56:00,
2013-07-18 09:59:00,87.2,75.8,30.07,WNW,285,0.0,3.0,69,0.00,,---,0.00,VWS V14.01,2013-07-18 13:59:00,
2013-07-18 10:01:00,87.4,75.6,30.07,North,11,0.0,5.0,68,0.00,,---,0.00,VWS V14.01,2013-07-18 14:01:00,
2013-07-18 10:04:00,87.4,74.7,30.06,North,5,2.0,5.0,66,0.00,,---,0.00,VWS V14.01,2013-07-18 14:04:00,
2013-07-18 10:06:00,87.6,74.8,30.06,North,5,0.0,2.0,66,0.00,,---,0.00,VWS V14.01,2013-07-18 14:06:00,
2013-07-18 10:09:00,87.6,75.3,30.06,NNW,327,5.0,6.0,67,0.00,,---,0.00,VWS V14.01,2013-07-18 14:09:00,
2013-07-18 10:11:00,87.6,74.8,30.06,NNW,327,0.0,0.0,66,0.00,,---,0.00,VWS V14.01,2013-07-18 14:11:00,
2013-07-18 10:14:00,87.8,75.0,30.06,West,273,0.0,3.0,66,0.00,,---,0.00,VWS V14.01,2013-07-18 14:14:00,
2013-07-18 10:15:00,88.0,76.6,30.06,NW,326,2.0,2.0,69,0.00,,---,0.00,VWS V14.01,2013-07-18 14:15:00,
2013-07-18 10:16:00,88.0,74.8,30.06,NW,315,1.0,4.0,65,0.00,,---,0.00,VWS V14.01,2013-07-18 14:16:00,
2013-07-18 10:19:00,88.0,74.8,30.07,NW,310,2.0,2.0,65,0.00,,---,0.00,VWS V14.01,2013-07-18 14:19:00,
2013-07-18 10:20:00,88.0,74.8,30.07,NW,313,0.0,2.0,65,0.00,,---,0.00,VWS V14.01,2013-07-18 14:20:00,
2013-07-18 10:21:00,88.0,74.3,30.07,NNE,30,1.0,2.0,64,0.00,,---,0.00,VWS V14.01,2013-07-18 14:21:00,
2013-07-18 10:22:00,88.0,74.3,30.07,NNE,30,0.0,2.0,64,0.00,,---,0.00,VWS V14.01,2013-07-18 14:22:00,
2013-07-18 10:24:00,88.0,74.8,30.07,West,266,3.0,4.0,65,0.00,,---,0.00,VWS V14.01,2013-07-18 14:24:00,
2013-07-18 10:25:00,88.2,76.8,30.07,WNW,296,4.0,5.0,69,0.00,,---,0.00,VWS V14.01,2013-07-18 14:25:00,
2013-07-18 10:27:00,88.2,75.4,30.07,NW,312,0.0,2.0,66,0.00,,---,0.00,VWS V14.01,2013-07-18 14:27:00,
2013-07-18 10:29:00,88.4,76.1,30.07,NW,313,0.0,0.0,67,0.00,,---,0.00,VWS V14.01,2013-07-18 14:29:00,
2013-07-18 10:30:00,88.4,75.6,30.07,NW,304,4.0,4.0,66,0.00,,---,0.00,VWS V14.01,2013-07-18 14:30:00,
2013-07-18 10:32:00,88.4,75.6,30.07,NW,304,4.0,8.0,66,0.00,,---,0.00,VWS V14.01,2013-07-18 14:32:00,
2013-07-18 10:34:00,88.4,74.7,30.06,NW,311,0.0,0.0,64,0.00,,---,0.00,VWS V14.01,2013-07-18 14:34:00,
2013-07-18 10:35:00,88.6,75.3,30.06,NW,311,1.0,1.0,65,0.00,,---,0.00,VWS V14.01,2013-07-18 14:35:00,
2013-07-18 10:37:00,88.6,75.3,30.06,North,5,5.0,7.0,65,0.00,,---,0.00,VWS V14.01,2013-07-18 14:37:00,
2013-07-18 10:39:00,88.6,75.3,30.06,North,5,2.0,2.0,65,0.00,,---,0.00,VWS V14.01,2013-07-18 14:39:00,
2013-07-18 10:40:00,88.6,75.3,30.06,North,5,0.0,2.0,65,0.00,,---,0.00,VWS V14.01,2013-07-18 14:40:00,
2013-07-18 10:42:00,88.6,74.9,30.06,North,11,1.0,3.0,64,0.00,,---,0.00,VWS V14.01,2013-07-18 14:42:00,
2013-07-18 10:44:00,88.6,75.8,30.06,North,11,0.0,0.0,66,0.00,,---,0.00,VWS V14.01,2013-07-18 14:44:00,
2013-07-18 10:45:00,88.6,75.8,30.06,North,10,0.0,0.0,66,0.00,,---,0.00,VWS V14.01,2013-07-18 14:45:00,
2013-07-18 10:47:00,88.8,75.5,30.06,North,5,2.0,2.0,65,0.00,,---,0.00,VWS V14.01,2013-07-18 14:47:00,
2013-07-18 10:49:00,89.0,76.6,30.06,NW,324,0.0,1.0,67,0.00,,---,0.00,VWS V14.01,2013-07-18 14:49:00,
2013-07-18 10:50:00,89.0,76.6,30.06,NW,324,0.0,1.0,67,0.00,,---,0.00,VWS V14.01,2013-07-18 14:50:00,
2013-07-18 10:52:00,89.5,76.2,30.06,West,275,4.0,4.0,65,0.00,,---,0.00,VWS V14.01,2013-07-18 14:52:00,
2013-07-18 10:54:00,89.5,76.2,30.06,NNW,339,1.0,1.0,65,0.00,,---,0.00,VWS V14.01,2013-07-18 14:54:00,
2013-07-18 10:55:00,89.5,75.7,30.06,NNW,339,1.0,2.0,64,0.00,,---,0.00,VWS V14.01,2013-07-18 14:55:00,
2013-07-18 10:57:00,89.5,75.2,30.06,WSW,252,1.0,2.0,63,0.00,,---,0.00,VWS V14.01,2013-07-18 14:57:00,
2013-07-18 10:59:00,89.9,77.0,30.06,NW,312,0.0,8.0,66,0.00,,---,0.00,VWS V14.01,2013-07-18 14:59:00,
2013-07-18 11:00:00,89.9,76.6,30.06,NW,312,0.0,0.0,65,0.00,,---,0.00,VWS V14.01,2013-07-18 15:00:00,
2013-07-18 11:02:00,90.1,76.8,30.06,NW,313,6.0,6.0,65,0.00,,---,0.00,VWS V14.01,2013-07-18 15:02:00,
2013-07-18 11:04:00,90.1,76.3,30.06,NW,321,3.0,3.0,64,0.00,,---,0.00,VWS V14.01,2013-07-18 15:04:00,
2013-07-18 11:05:00,90.1,76.3,30.06,NNE,26,1.0,1.0,64,0.00,,---,0.00,VWS V14.01,2013-07-18 15:05:00,
2013-07-18 11:07:00,89.9,75.1,30.06,NW,313,0.0,0.0,62,0.00,,---,0.00,VWS V14.01,2013-07-18 15:07:00,
2013-07-18 11:09:00,89.9,75.1,30.06,NNW,346,1.0,4.0,62,0.00,,---,0.00,VWS V14.01,2013-07-18 15:09:00,
2013-07-18 11:10:00,89.9,75.6,30.06,NNW,346,0.0,0.0,63,0.00,,---,0.00,VWS V14.01,2013-07-18 15:10:00,
2013-07-18 11:12:00,89.9,76.1,30.06,NNW,346,2.0,3.0,64,0.00,,---,0.00,VWS V14.01,2013-07-18 15:12:00,
2013-07-18 11:14:00,89.9,74.7,30.06,NNW,346,0.0,0.0,61,0.00,,---,0.00,VWS V14.01,2013-07-18 15:14:00,
2013-07-18 11:15:00,89.9,75.1,30.06,NNW,346,0.0,1.0,62,0.00,,---,0.00,VWS V14.01,2013-07-18 15:15:00,
2013-07-18 11:17:00,89.9,75.1,30.06,NNW,342,0.0,2.0,62,0.00,,---,0.00,VWS V14.01,2013-07-18 15:17:00,
2013-07-18 11:20:00,90.3,76.5,30.06,NNW,342,0.0,1.0,64,0.00,,---,0.00,VWS V14.01,2013-07-18 15:20:00,
2013-07-18 11:22:00,90.3,75.5,30.06,North,355,3.0,6.0,62,0.00,,---,0.00,VWS V14.01,2013-07-18 15:22:00,
2013-07-18 11:23:00,90.3,75.0,30.06,WNW,298,0.0,6.0,61,0.00,,---,0.00,VWS V14.01,2013-07-18 15:23:00,
2013-07-18 11:25:00,90.3,76.0,30.06,NW,326,1.0,2.0,63,0.00,,---,0.00,VWS V14.01,2013-07-18 15:25:00,
2013-07-18 11:26:00,90.3,76.0,30.06,NW,326,0.0,1.0,63,0.00,,---,0.00,VWS V14.01,2013-07-18 15:26:00,
2013-07-18 11:27:00,90.1,74.3,30.06,NW,326,0.0,0.0,60,0.00,,---,0.00,VWS V14.01,2013-07-18 15:27:00,
2013-07-18 11:28:00,90.1,74.3,30.06,NW,326,0.0,0.0,60,0.00,,---,0.00,VWS V14.01,2013-07-18 15:28:00,
2013-07-18 11:30:00,90.3,75.5,30.06,NW,326,0.0,0.0,62,0.00,,---,0.00,VWS V14.01,2013-07-18 15:30:00,
2013-07-18 11:31:00,90.5,77.1,30.06,NW,326,0.0,1.0,65,0.00,,---,0.00,VWS V14.01,2013-07-18 15:31:00,
2013-07-18 11:32:00,90.5,75.7,30.06,NW,326,0.0,0.0,62,0.00,,---,0.00,VWS V14.01,2013-07-18 15:32:00,
2013-07-18 11:33:00,90.5,75.7,30.06,NNW,327,2.0,2.0,62,0.00,,---,0.00,VWS V14.01,2013-07-18 15:33:00,
2013-07-18 11:35:00,90.5,74.7,30.06,NNW,333,3.0,4.0,60,0.00,,---,0.00,VWS V14.01,2013-07-18 15:35:00,
2013-07-18 11:36:00,90.3,74.5,30.06,NNE,24,1.0,4.0,60,0.00,,---,0.00,VWS V14.01,2013-07-18 15:36:00,
2013-07-18 11:37:00,90.3,75.0,30.06,NE,48,1.0,5.0,61,0.00,,---,0.00,VWS V14.01,2013-07-18 15:37:00,
2013-07-18 11:38:00,90.3,75.0,30.06,NE,48,1.0,5.0,61,0.00,,---,0.00,VWS V14.01,2013-07-18 15:38:00,
2013-07-18 11:40:00,90.1,73.8,30.06,NE,48,3.0,3.0,59,0.00,,---,0.00,VWS V14.01,2013-07-18 15:40:00,
2013-07-18 11:41:00,90.1,74.3,30.06,NNE,13,5.0,5.0,60,0.00,,---,0.00,VWS V14.01,2013-07-18 15:41:00,
2013-07-18 11:42:00,89.9,74.7,30.06,NW,323,0.0,4.0,61,0.00,,---,0.00,VWS V14.01,2013-07-18 15:42:00,
2013-07-18 11:43:00,89.9,74.7,30.06,NW,323,0.0,1.0,61,0.00,,---,0.00,VWS V14.01,2013-07-18 15:43:00,
2013-07-18 11:45:00,89.9,74.7,30.06,NW,323,3.0,4.0,61,0.00,,---,0.00,VWS V14.01,2013-07-18 15:45:00,
2013-07-18 11:46:00,89.9,74.7,30.06,NW,323,1.0,1.0,61,0.00,,---,0.00,VWS V14.01,2013-07-18 15:46:00,
2013-07-18 11:47:00,90.1,75.3,30.05,NW,320,0.0,1.0,62,0.00,,---,0.00,VWS V14.01,2013-07-18 15:47:00,
2013-07-18 11:48:00,90.1,75.3,30.05,West,267,2.0,2.0,62,0.00,,---,0.00,VWS V14.01,2013-07-18 15:48:00,
2013-07-18 11:50:00,90.3,76.5,30.05,West,281,1.0,1.0,64,0.00,,---,0.00,VWS V14.01,2013-07-18 15:50:00,
2013-07-18 11:51:00,90.3,76.5,30.05,West,281,0.0,1.0,64,0.00,,---,0.00,VWS V14.01,2013-07-18 15:51:00,
2013-07-18 11:52:00,90.3,74.5,30.05,WNW,290,0.0,5.0,60,0.00,,---,0.00,VWS V14.01,2013-07-18 15:52:00,
2013-07-18 11:53:00,90.5,75.7,30.05,NW,324,5.0,5.0,62,0.00,,---,0.00,VWS V14.01,2013-07-18 15:53:00,
2013-07-18 11:55:00,90.5,74.2,30.05,North,360,2.0,3.0,59,0.00,,---,0.00,VWS V14.01,2013-07-18 15:55:00,
2013-07-18 11:56:00,90.5,75.2,30.05,North,360,0.0,1.0,61,0.00,,---,0.00,VWS V14.01,2013-07-18 15:56:00,
2013-07-18 11:57:00,90.5,74.7,30.05,North,360,0.0,0.0,60,0.00,,---,0.00,VWS V14.01,2013-07-18 15:57:00,
2013-07-18 11:58:00,90.5,74.7,30.05,North,360,0.0,0.0,60,0.00,,---,0.00,VWS V14.01,2013-07-18 15:58:00,
2013-07-18 12:00:00,90.5,74.2,30.05,North,360,0.0,0.0,59,0.00,,---,0.00,VWS V14.01,2013-07-18 16:00:00,
2013-07-18 12:01:00,90.5,74.2,30.05,North,360,0.0,0.0,59,0.00,,---,0.00,VWS V14.01,2013-07-18 16:01:00,
2013-07-18 12:02:00,90.7,74.9,30.05,North,360,0.0,0.0,60,0.00,,---,0.00,VWS V14.01,2013-07-18 16:02:00,
2013-07-18 12:03:00,90.7,75.4,30.05,North,360,0.0,1.0,61,0.00,,---,0.00,VWS V14.01,2013-07-18 16:03:00,
2013-07-18 12:05:00,91.0,75.7,30.05,North,360,0.0,1.0,61,0.00,,---,0.00,VWS V14.01,2013-07-18 16:05:00,
2013-07-18 12:06:00,91.0,75.2,30.05,North,360,1.0,1.0,60,0.00,,---,0.00,VWS V14.01,2013-07-18 16:06:00,
2013-07-18 12:08:00,91.2,75.4,30.05,North,9,2.0,3.0,60,0.00,,---,0.00,VWS V14.01,2013-07-18 16:08:00,
2013-07-18 12:10:00,91.2,75.4,30.05,North,9,1.0,1.0,60,0.00,,---,0.00,VWS V14.01,2013-07-18 16:10:00,
2013-07-18 12:11:00,91.4,76.1,30.05,NW,325,0.0,2.0,61,0.00,,---,0.00,VWS V14.01,2013-07-18 16:11:00,
2013-07-18 12:13:00,91.4,74.6,30.05,NW,325,0.0,2.0,58,0.00,,---,0.00,VWS V14.01,2013-07-18 16:13:00,
2013-07-18 12:14:00,91.4,75.1,30.05,NW,325,2.0,2.0,59,0.00,,---,0.00,VWS V14.01,2013-07-18 16:14:00,
2013-07-18 12:15:00,91.4,74.6,30.05,NW,325,0.0,0.0,58,0.00,,---,0.00,VWS V14.01,2013-07-18 16:15:00,
2013-07-18 12:16:00,91.4,74.6,30.05,NW,325,0.0,1.0,58,0.00,,---,0.00,VWS V14.01,2013-07-18 16:16:00,
2013-07-18 12:18:00,91.6,75.8,30.04,NW,325,1.0,1.0,60,0.00,,---,0.00,VWS V14.01,2013-07-18 16:18:00,
2013-07-18 12:19:00,91.6,76.2,30.04,NW,325,0.0,0.0,61,0.00,,---,0.00,VWS V14.01,2013-07-18 16:19:00,
2013-07-18 12:20:00,91.6,74.7,30.04,NW,325,0.0,1.0,58,0.00,,---,0.00,VWS V14.01,2013-07-18 16:20:00,
2013-07-18 12:21:00,91.6,74.7,30.04,NW,325,1.0,1.0,58,0.00,,---,0.00,VWS V14.01,2013-07-18 16:21:00,
2013-07-18 12:22:00,91.8,76.4,30.04,WNW,286,4.0,4.0,61,0.00,,---,0.00,VWS V14.01,2013-07-18 16:22:00,
2013-07-18 12:23:00,91.8,75.4,30.04,WSW,245,0.0,5.0,59,0.00,,---,0.00,VWS V14.01,2013-07-18 16:23:00,
2013-07-18 12:24:00,91.8,74.9,30.04,WSW,245,3.0,3.0,58,0.00,,---,0.00,VWS V14.01,2013-07-18 16:24:00,
2013-07-18 12:25:00,91.8,75.4,30.04,WSW,247,3.0,3.0,59,0.00,,---,0.00,VWS V14.01,2013-07-18 16:25:00,
2013-07-18 12:26:00,91.8,75.4,30.04,WSW,247,2.0,3.0,59,0.00,,---,0.00,VWS V14.01,2013-07-18 16:26:00,
2013-07-18 12:27:00,91.8,75.9,30.04,West,259,0.0,0.0,60,0.00,,---,0.00,VWS V14.01,2013-07-18 16:27:00,
2013-07-18 12:28:00,91.8,75.9,30.04,West,259,0.0,3.0,60,0.00,,---,0.00,VWS V14.01,2013-07-18 16:28:00,
2013-07-18 12:29:00,91.8,75.9,30.04,West,259,0.0,2.0,60,0.00,,---,0.00,VWS V14.01,2013-07-18 16:29:00,
2013-07-18 12:30:00,92.1,77.2,30.04,West,259,1.0,1.0,62,0.00,,---,0.00,VWS V14.01,2013-07-18 16:30:00,
2013-07-18 12:31:00,92.1,77.2,30.04,West,259,0.0,1.0,62,0.00,,---,0.00,VWS V14.01,2013-07-18 16:31:00,
2013-07-18 12:32:00,92.1,76.7,30.04,West,259,1.0,1.0,61,0.00,,---,0.00,VWS V14.01,2013-07-18 16:32:00,
2013-07-18 12:33:00,92.3,77.9,30.04,West,259,0.0,1.0,63,0.00,,---,0.00,VWS V14.01,2013-07-18 16:33:00,
2013-07-18 12:34:00,92.3,78.4,30.04,WSW,244,4.0,4.0,64,0.00,,---,0.00,VWS V14.01,2013-07-18 16:34:00,
2013-07-18 12:35:00,92.3,77.4,30.04,WSW,244,0.0,4.0,62,0.00,,---,0.00,VWS V14.01,2013-07-18 16:35:00,
2013-07-18 12:36:00,92.3,77.4,30.04,WSW,244,3.0,4.0,62,0.00,,---,0.00,VWS V14.01,2013-07-18 16:36:00,
2013-07-18 12:37:00,92.3,76.4,30.04,WSW,239,5.0,5.0,60,0.00,,---,0.00,VWS V14.01,2013-07-18 16:37:00,
2013-07-18 12:38:00,92.3,75.4,30.04,WSW,239,4.0,4.0,58,0.00,,---,0.00,VWS V14.01,2013-07-18 16:38:00,
2013-07-18 12:39:00,92.3,74.9,30.04,South,171,2.0,4.0,57,0.00,,---,0.00,VWS V14.01,2013-07-18 16:39:00,
2013-07-18 12:41:00,92.3,73.8,30.04,South,171,0.0,1.0,55,0.00,,---,0.00,VWS V14.01,2013-07-18 16:41:00,
2013-07-18 12:42:00,92.3,75.4,30.04,South,171,0.0,0.0,58,0.00,,---,0.00,VWS V14.01,2013-07-18 16:42:00,
2013-07-18 12:43:00,92.3,76.4,30.04,South,171,0.0,0.0,60,0.00,,---,0.00,VWS V14.01,2013-07-18 16:43:00,
2013-07-18 12:44:00,92.5,76.1,30.04,North,351,2.0,4.0,59,0.00,,---,0.00,VWS V14.01,2013-07-18 16:44:00,
2013-07-18 12:46:00,92.5,75.6,30.04,WNW,292,4.0,4.0,58,0.00,,---,0.00,VWS V14.01,2013-07-18 16:46:00,
2013-07-18 12:47:00,92.5,75.6,30.04,WNW,292,0.0,0.0,58,0.00,,---,0.00,VWS V14.01,2013-07-18 16:47:00,
2013-07-18 12:48:00,92.5,74.5,30.04,WNW,292,0.0,0.0,56,0.00,,---,0.00,VWS V14.01,2013-07-18 16:48:00,
2013-07-18 12:49:00,92.5,74.0,30.04,WNW,292,0.0,0.0,55,0.00,,---,0.00,VWS V14.01,2013-07-18 16:49:00,
2013-07-18 12:51:00,92.5,74.5,30.04,WNW,292,0.0,0.0,56,0.00,,---,0.00,VWS V14.01,2013-07-18 16:51:00,
2013-07-18 12:52:00,92.7,75.2,30.04,WNW,292,3.0,3.0,57,0.00,,---,0.00,VWS V14.01,2013-07-18 16:52:00,
2013-07-18 12:53:00,92.7,75.8,30.04,WNW,290,0.0,3.0,58,0.00,,---,0.00,VWS V14.01,2013-07-18 16:53:00,
2013-07-18 12:54:00,92.9,75.4,30.04,WNW,286,0.0,1.0,57,0.00,,---,0.00,VWS V14.01,2013-07-18 16:54:00,
2013-07-18 12:56:00,92.9,77.0,30.04,WSW,244,4.0,8.0,60,0.00,,---,0.00,VWS V14.01,2013-07-18 16:56:00,
2013-07-18 12:57:00,93.2,77.3,30.04,WSW,244,0.0,0.0,60,0.00,,---,0.00,VWS V14.01,2013-07-18 16:57:00,
2013-07-18 12:58:00,93.2,76.2,30.04,WSW,244,0.0,0.0,58,0.00,,---,0.00,VWS V14.01,2013-07-18 16:58:00,
2013-07-18 12:59:00,93.2,73.5,30.04,WSW,244,0.0,1.0,53,0.00,,---,0.00,VWS V14.01,2013-07-18 16:59:00,
2013-07-18 13:01:00,93.2,75.2,30.04,WSW,244,0.0,0.0,56,0.00,,---,0.00,VWS V14.01,2013-07-18 17:01:00,
2013-07-18 13:02:00,93.4,75.4,30.03,WSW,244,1.0,2.0,56,0.00,,---,0.00,VWS V14.01,2013-07-18 17:02:00,
2013-07-18 13:03:00,93.4,74.8,30.03,WSW,244,0.0,0.0,55,0.00,,---,0.00,VWS V14.01,2013-07-18 17:03:00,
2013-07-18 13:04:00,93.4,75.4,30.03,WSW,244,0.0,0.0,56,0.00,,---,0.00,VWS V14.01,2013-07-18 17:04:00,
2013-07-18 13:06:00,93.4,74.3,30.03,WSW,244,0.0,0.0,54,0.00,,---,0.00,VWS V14.01,2013-07-18 17:06:00,
2013-07-18 13:07:00,93.4,74.3,30.03,WSW,244,0.0,0.0,54,0.00,,---,0.00,VWS V14.01,2013-07-18 17:07:00,
2013-07-18 13:08:00,93.4,73.7,30.03,WSW,244,0.0,0.0,53,0.00,,---,0.00,VWS V14.01,2013-07-18 17:08:00,
2013-07-18 13:09:00,93.4,74.8,30.03,NW,320,0.0,2.0,55,0.00,,---,0.00,VWS V14.01,2013-07-18 17:09:00,
2013-07-18 13:11:00,93.4,74.8,30.03,WSW,247,5.0,6.0,55,0.00,,---,0.00,VWS V14.01,2013-07-18 17:11:00,
2013-07-18 13:12:00,93.6,76.1,30.03,WSW,247,0.0,0.0,57,0.00,,---,0.00,VWS V14.01,2013-07-18 17:12:00,
2013-07-18 13:13:00,93.6,75.0,30.03,WSW,247,0.0,2.0,55,0.00,,---,0.00,VWS V14.01,2013-07-18 17:13:00,
2013-07-18 13:14:00,93.4,73.7,30.03,WSW,247,0.0,0.0,53,0.00,,---,0.00,VWS V14.01,2013-07-18 17:14:00,
2013-07-18 13:16:00,93.4,73.2,30.03,WSW,247,0.0,0.0,52,0.00,,---,0.00,VWS V14.01,2013-07-18 17:16:00,
2013-07-18 13:17:00,93.6,76.1,30.03,WSW,247,0.0,0.0,57,0.00,,---,0.00,VWS V14.01,2013-07-18 17:17:00,
2013-07-18 13:19:00,93.4,75.9,30.03,WSW,247,0.0,0.0,57,0.00,,---,0.00,VWS V14.01,2013-07-18 17:19:00,
2013-07-18 13:21:00,93.4,74.8,30.03,WSW,247,0.0,0.0,55,0.00,,---,0.00,VWS V14.01,2013-07-18 17:21:00,
2013-07-18 13:22:00,93.4,74.8,30.03,WSW,247,1.0,1.0,55,0.00,,---,0.00,VWS V14.01,2013-07-18 17:22:00,
2013-07-18 13:24:00,93.4,73.2,30.03,WSW,246,0.0,1.0,52,0.00,,---,0.00,VWS V14.01,2013-07-18 17:24:00,
2013-07-18 13:26:00,93.4,73.2,30.03,SW,223,2.0,2.0,52,0.00,,---,0.00,VWS V14.01,2013-07-18 17:26:00,
2013-07-18 13:27:00,93.4,73.2,30.03,SW,223,0.0,2.0,52,0.00,,---,0.00,VWS V14.01,2013-07-18 17:27:00,
2013-07-18 13:29:00,93.4,73.7,30.03,WNW,286,3.0,3.0,53,0.00,,---,0.00,VWS V14.01,2013-07-18 17:29:00,
2013-07-18 13:30:00,93.4,73.7,30.03,WNW,286,0.0,5.0,53,0.00,,---,0.00,VWS V14.01,2013-07-18 17:30:00,
2013-07-18 13:31:00,93.4,74.8,30.03,WNW,286,0.0,0.0,55,0.00,,---,0.00,VWS V14.01,2013-07-18 17:31:00,
2013-07-18 13:32:00,93.4,73.2,30.03,WNW,286,0.0,0.0,52,0.00,,---,0.00,VWS V14.01,2013-07-18 17:32:00,
2013-07-18 13:34:00,93.6,73.3,30.02,WNW,286,0.0,0.0,52,0.00,,---,0.00,VWS V14.01,2013-07-18 17:34:00,
2013-07-18 13:35:00,93.6,73.3,30.02,SW,229,5.0,5.0,52,0.00,,---,0.00,VWS V14.01,2013-07-18 17:35:00,
2013-07-18 13:36:00,93.6,73.3,30.02,SW,229,0.0,0.0,52,0.00,,---,0.00,VWS V14.01,2013-07-18 17:36:00,
2013-07-18 13:37:00,93.6,73.3,30.02,SW,229,0.0,1.0,52,0.00,,---,0.00,VWS V14.01,2013-07-18 17:37:00,
2013-07-18 13:39:00,93.6,73.3,30.02,SW,236,0.0,1.0,52,0.00,,---,0.00,VWS V14.01,2013-07-18 17:39:00,
2013-07-18 13:40:00,93.6,73.3,30.02,SW,235,0.0,1.0,52,0.00,,---,0.00,VWS V14.01,2013-07-18 17:40:00,
2013-07-18 13:41:00,93.4,72.6,30.02,SW,235,0.0,3.0,51,0.00,,---,0.00,VWS V14.01,2013-07-18 17:41:00,
2013-07-18 13:42:00,93.4,72.6,30.02,SW,235,0.0,3.0,51,0.00,,---,0.00,VWS V14.01,2013-07-18 17:42:00,
2013-07-18 13:44:00,93.4,73.2,30.02,WSW,237,0.0,0.0,52,0.00,,---,0.00,VWS V14.01,2013-07-18 17:44:00,
2013-07-18 13:45:00,93.4,73.2,30.02,WSW,242,0.0,1.0,52,0.00,,---,0.00,VWS V14.01,2013-07-18 17:45:00,
2013-07-18 13:46:00,93.4,73.7,30.02,WNW,287,2.0,5.0,53,0.00,,---,0.00,VWS V14.01,2013-07-18 17:46:00,
2013-07-18 13:47:00,93.4,73.7,30.02,WNW,288,1.0,5.0,53,0.00,,---,0.00,VWS V14.01,2013-07-18 17:47:00,
2013-07-18 13:49:00,93.2,73.5,30.02,NNW,344,2.0,3.0,53,0.00,,---,0.00,VWS V14.01,2013-07-18 17:49:00,
2013-07-18 13:50:00,93.2,73.0,30.02,NNW,344,2.0,3.0,52,0.00,,---,0.00,VWS V14.01,2013-07-18 17:50:00,
2013-07-18 13:51:00,93.2,73.0,30.02,West,269,1.0,3.0,52,0.00,,---,0.00,VWS V14.01,2013-07-18 17:51:00,
2013-07-18 13:52:00,93.2,73.5,30.02,West,269,0.0,1.0,53,0.00,,---,0.00,VWS V14.01,2013-07-18 17:52:00,
2013-07-18 13:54:00,93.2,73.0,30.02,NNW,330,0.0,3.0,52,0.00,,---,0.00,VWS V14.01,2013-07-18 17:54:00,
2013-07-18 13:55:00,93.2,72.4,30.02,NNW,330,0.0,3.0,51,0.00,,---,0.00,VWS V14.01,2013-07-18 17:55:00,
2013-07-18 13:57:00,93.2,73.0,30.02,NNE,17,5.0,5.0,52,0.00,,---,0.00,VWS V14.01,2013-07-18 17:57:00,
2013-07-18 13:59:00,92.9,72.7,30.02,NNW,338,3.0,4.0,52,0.00,,---,0.00,VWS V14.01,2013-07-18 17:59:00,
2013-07-18 14:00:00,92.9,72.1,30.02,NNW,339,2.0,4.0,51,0.00,,---,0.00,VWS V14.01,2013-07-18 18:00:00,
2013-07-18 14:02:00,92.7,72.5,30.02,NNW,339,0.0,2.0,52,0.00,,---,0.00,VWS V14.01,2013-07-18 18:02:00,
2013-07-18 14:03:00,92.7,73.6,30.02,NNW,339,0.0,0.0,54,0.00,,---,0.00,VWS V14.01,2013-07-18 18:03:00,
2013-07-18 14:04:00,92.7,72.5,30.02,NNW,339,1.0,3.0,52,0.00,,---,0.00,VWS V14.01,2013-07-18 18:04:00,
2013-07-18 14:05:00,92.7,72.5,30.02,NNW,339,0.0,3.0,52,0.00,,---,0.00,VWS V14.01,2013-07-18 18:05:00,
2013-07-18 14:07:00,92.7,74.2,30.02,NNE,14,5.0,7.0,55,0.00,,---,0.00,VWS V14.01,2013-07-18 18:07:00,
2013-07-18 14:08:00,92.5,71.8,30.02,NNE,17,2.0,5.0,51,0.00,,---,0.00,VWS V14.01,2013-07-18 18:08:00,
2013-07-18 14:09:00,92.5,73.4,30.02,NNW,338,5.0,5.0,54,0.00,,---,0.00,VWS V14.01,2013-07-18 18:09:00,
2013-07-18 14:10:00,92.5,73.4,30.02,NNE,13,1.0,5.0,54,0.00,,---,0.00,VWS V14.01,2013-07-18 18:10:00,
2013-07-18 14:12:00,92.5,72.9,30.02,NW,311,0.0,4.0,53,0.00,,---,0.00,VWS V14.01,2013-07-18 18:12:00,
2013-07-18 14:13:00,92.5,74.0,30.02,NNE,24,2.0,2.0,55,0.00,,---,0.00,VWS V14.01,2013-07-18 18:13:00,
2013-07-18 14:15:00,92.5,71.2,30.02,NE,38,4.0,4.0,50,0.00,,---,0.00,VWS V14.01,2013-07-18 18:15:00,
2013-07-18 14:17:00,92.3,71.6,30.01,NW,324,4.0,4.0,51,0.00,,---,0.00,VWS V14.01,2013-07-18 18:17:00,
2013-07-18 14:18:00,92.3,71.6,30.01,NW,306,0.0,6.0,51,0.00,,---,0.00,VWS V14.01,2013-07-18 18:18:00,
2013-07-18 14:20:00,92.3,72.1,30.01,West,269,2.0,5.0,52,0.00,,---,0.00,VWS V14.01,2013-07-18 18:20:00,
2013-07-18 14:22:00,92.3,72.7,30.01,West,277,0.0,1.0,53,0.00,,---,0.00,VWS V14.01,2013-07-18 18:22:00,
2013-07-18 14:23:00,92.3,72.7,30.01,West,277,0.0,1.0,53,0.00,,---,0.00,VWS V14.01,2013-07-18 18:23:00,
2013-07-18 14:25:00,92.3,73.3,30.01,NNW,334,4.0,6.0,54,0.00,,---,0.00,VWS V14.01,2013-07-18 18:25:00,
2013-07-18 14:27:00,92.3,72.1,30.01,NW,314,0.0,4.0,52,0.00,,---,0.00,VWS V14.01,2013-07-18 18:27:00,
2013-07-18 14:28:00,92.3,72.1,30.01,NW,315,3.0,4.0,52,0.00,,---,0.00,VWS V14.01,2013-07-18 18:28:00,
2013-07-18 14:30:00,92.3,73.3,30.01,NW,324,0.0,1.0,54,0.00,,---,0.00,VWS V14.01,2013-07-18 18:30:00,
2013-07-18 14:32:00,92.3,71.0,30.01,NW,325,0.0,0.0,50,0.00,,---,0.00,VWS V14.01,2013-07-18 18:32:00,
2013-07-18 14:33:00,92.3,71.0,30.01,NW,325,0.0,0.0,50,0.00,,---,0.00,VWS V14.01,2013-07-18 18:33:00,
2013-07-18 14:35:00,92.5,74.0,30.01,NW,325,0.0,3.0,55,0.00,,---,0.00,VWS V14.01,2013-07-18 18:35:00,
2013-07-18 14:37:00,92.5,72.3,30.01,NW,324,4.0,4.0,52,0.00,,---,0.00,VWS V14.01,2013-07-18 18:37:00,
2013-07-18 14:38:00,92.5,72.3,30.01,North,351,4.0,5.0,52,0.00,,---,0.00,VWS V14.01,2013-07-18 18:38:00,
2013-07-18 14:40:00,92.5,72.9,30.01,NW,315,1.0,3.0,53,0.00,,---,0.00,VWS V14.01,2013-07-18 18:40:00,
2013-07-18 14:43:00,92.7,74.7,30.01,NW,315,2.0,2.0,56,0.00,,---,0.00,VWS V14.01,2013-07-18 18:43:00,
2013-07-18 14:45:00,92.7,73.6,30.01,NW,315,0.0,0.0,54,0.00,,---,0.00,VWS V14.01,2013-07-18 18:45:00,
2013-07-18 14:48:00,92.9,73.8,30.00,WSW,238,0.0,5.0,54,0.00,,---,0.00,VWS V14.01,2013-07-18 18:48:00,
2013-07-18 14:50:00,93.2,74.1,30.00,WSW,238,0.0,0.0,54,0.00,,---,0.00,VWS V14.01,2013-07-18 18:50:00,
2013-07-18 14:53:00,93.2,73.5,30.00,WSW,240,1.0,3.0,53,0.00,,---,0.00,VWS V14.01,2013-07-18 18:53:00,
2013-07-18 14:55:00,93.4,74.3,30.00,WSW,240,0.0,0.0,54,0.00,,---,0.00,VWS V14.01,2013-07-18 18:55:00,
2013-07-18 14:58:00,93.4,74.8,30.00,SW,228,4.0,4.0,55,0.00,,---,0.00,VWS V14.01,2013-07-18 18:58:00,
2013-07-18 15:00:00,93.4,74.3,30.00,SSW,210,3.0,7.0,54,0.00,,---,0.00,VWS V14.01,2013-07-18 19:00:00,
2013-07-18 15:01:00,93.4,73.7,30.00,SW,216,0.0,7.0,53,0.00,,---,0.00,VWS V14.01,2013-07-18 19:01:00,
2013-07-18 15:03:00,93.4,73.7,30.00,WNW,294,0.0,5.0,53,0.00,,---,0.00,VWS V14.01,2013-07-18 19:03:00,
2013-07-18 15:05:00,93.6,73.9,30.00,WNW,294,0.0,0.0,53,0.00,,---,0.00,VWS V14.01,2013-07-18 19:05:00,
2013-07-18 15:06:00,93.4,72.0,30.00,WNW,291,1.0,1.0,50,0.00,,---,0.00,VWS V14.01,2013-07-18 19:06:00,
2013-07-18 15:08:00,93.4,71.4,30.00,North,355,9.0,9.0,49,0.00,,---,0.00,VWS V14.01,2013-07-18 19:08:00,
2013-07-18 15:10:00,93.4,72.0,30.00,NW,323,0.0,1.0,50,0.00,,---,0.00,VWS V14.01,2013-07-18 19:10:00,
2013-07-18 15:11:00,93.4,72.0,30.00,NW,323,0.0,0.0,50,0.00,,---,0.00,VWS V14.01,2013-07-18 19:11:00,
2013-07-18 15:13:00,93.4,72.0,30.00,NW,323,1.0,1.0,50,0.00,,---,0.00,VWS V14.01,2013-07-18 19:13:00,
2013-07-18 15:14:00,93.4,73.2,30.00,NW,323,0.0,1.0,52,0.00,,---,0.00,VWS V14.01,2013-07-18 19:14:00,
2013-07-18 15:15:00,93.4,73.2,30.00,WSW,240,2.0,3.0,52,0.00,,---,0.00,VWS V14.01,2013-07-18 19:15:00,
2013-07-18 15:16:00,93.4,72.0,30.00,WSW,240,0.0,0.0,50,0.00,,---,0.00,VWS V14.01,2013-07-18 19:16:00,
2013-07-18 15:18:00,93.4,73.2,29.99,WSW,240,0.0,0.0,52,0.00,,---,0.00,VWS V14.01,2013-07-18 19:18:00,
2013-07-18 15:19:00,93.4,72.0,29.99,SW,229,5.0,6.0,50,0.00,,---,0.00,VWS V14.01,2013-07-18 19:19:00,
2013-07-18 15:20:00,93.4,72.6,29.99,NW,308,1.0,2.0,51,0.00,,---,0.00,VWS V14.01,2013-07-18 19:20:00,
2013-07-18 15:21:00,93.4,72.0,29.99,NW,308,0.0,0.0,50,0.00,,---,0.00,VWS V14.01,2013-07-18 19:21:00,
2013-07-18 15:23:00,93.4,73.2,29.99,NW,308,0.0,0.0,52,0.00,,---,0.00,VWS V14.01,2013-07-18 19:23:00,
2013-07-18 15:24:00,93.4,73.7,29.99,NW,308,0.0,1.0,53,0.00,,---,0.00,VWS V14.01,2013-07-18 19:24:00,
2013-07-18 15:25:00,93.4,72.6,29.99,NW,308,1.0,1.0,51,0.00,,---,0.00,VWS V14.01,2013-07-18 19:25:00,
2013-07-18 15:26:00,93.4,72.0,29.99,NW,308,7.0,7.0,50,0.00,,---,0.00,VWS V14.01,2013-07-18 19:26:00,
2013-07-18 15:28:00,93.2,72.4,29.99,WNW,282,0.0,0.0,51,0.00,,---,0.00,VWS V14.01,2013-07-18 19:28:00,
2013-07-18 15:29:00,93.4,73.7,29.99,WNW,282,0.0,1.0,53,0.00,,---,0.00,VWS V14.01,2013-07-18 19:29:00,
2013-07-18 15:30:00,93.4,73.7,29.99,WNW,282,0.0,2.0,53,0.00,,---,0.00,VWS V14.01,2013-07-18 19:30:00,
2013-07-18 15:31:00,93.4,73.2,29.99,West,276,3.0,5.0,52,0.00,,---,0.00,VWS V14.01,2013-07-18 19:31:00,
2013-07-18 15:33:00,93.4,73.2,29.98,West,277,3.0,5.0,52,0.00,,---,0.00,VWS V14.01,2013-07-18 19:33:00,
2013-07-18 15:34:00,93.4,72.6,29.98,NNW,333,4.0,5.0,51,0.00,,---,0.00,VWS V14.01,2013-07-18 19:34:00,
2013-07-18 15:35:00,93.2,71.8,29.98,NNW,336,0.0,3.0,50,0.00,,---,0.00,VWS V14.01,2013-07-18 19:35:00,
2013-07-18 15:36:00,93.2,71.2,29.98,NNW,336,0.0,1.0,49,0.00,,---,0.00,VWS V14.01,2013-07-18 19:36:00,
2013-07-18 15:38:00,93.2,73.0,29.98,NW,309,2.0,2.0,52,0.00,,---,0.00,VWS V14.01,2013-07-18 19:38:00,
2013-07-18 15:39:00,93.2,72.4,29.98,NW,309,0.0,0.0,51,0.00,,---,0.00,VWS V14.01,2013-07-18 19:39:00,
2013-07-18 15:40:00,93.2,71.8,29.98,NW,309,0.0,0.0,50,0.00,,---,0.00,VWS V14.01,2013-07-18 19:40:00,
2013-07-18 15:41:00,93.2,71.2,29.98,NW,309,0.0,0.0,49,0.00,,---,0.00,VWS V14.01,2013-07-18 19:41:00,
2013-07-18 15:43:00,93.2,72.4,29.98,NW,309,0.0,0.0,51,0.00,,---,0.00,VWS V14.01,2013-07-18 19:43:00,
2013-07-18 15:44:00,93.2,71.8,29.98,NW,315,3.0,3.0,50,0.00,,---,0.00,VWS V14.01,2013-07-18 19:44:00,
2013-07-18 15:45:00,93.2,71.2,29.98,NW,318,0.0,1.0,49,0.00,,---,0.00,VWS V14.01,2013-07-18 19:45:00,
2013-07-18 15:46:00,93.2,73.0,29.98,NW,318,0.0,0.0,52,0.00,,---,0.00,VWS V14.01,2013-07-18 19:46:00,
2013-07-18 15:48:00,92.9,72.1,29.98,WNW,290,0.0,0.0,51,0.00,,---,0.00,VWS V14.01,2013-07-18 19:48:00,
2013-07-18 15:49:00,92.9,72.1,29.98,WNW,290,1.0,1.0,51,0.00,,---,0.00,VWS V14.01,2013-07-18 19:49:00,
2013-07-18 15:50:00,93.2,73.0,29.98,SW,225,2.0,6.0,52,0.00,,---,0.00,VWS V14.01,2013-07-18 19:50:00,
2013-07-18 15:51:00,93.2,74.6,29.98,SW,227,4.0,5.0,55,0.00,,---,0.00,VWS V14.01,2013-07-18 19:51:00,
2013-07-18 15:53:00,93.2,74.1,29.98,SW,227,3.0,4.0,54,0.00,,---,0.00,VWS V14.01,2013-07-18 19:53:00,
2013-07-18 15:54:00,92.9,73.3,29.98,SW,227,0.0,1.0,53,0.00,,---,0.00,VWS V14.01,2013-07-18 19:54:00,
2013-07-18 15:56:00,92.9,72.7,29.98,SW,221,1.0,3.0,52,0.00,,---,0.00,VWS V14.01,2013-07-18 19:56:00,
2013-07-18 15:57:00,92.9,72.1,29.98,SW,221,0.0,1.0,51,0.00,,---,0.00,VWS V14.01,2013-07-18 19:57:00,
2013-07-18 15:58:00,92.9,72.7,29.98,SW,221,0.0,0.0,52,0.00,,---,0.00,VWS V14.01,2013-07-18 19:58:00,
2013-07-18 15:59:00,92.9,72.7,29.98,SW,221,0.0,0.0,52,0.00,,---,0.00,VWS V14.01,2013-07-18 19:59:00,
2013-07-18 16:01:00,92.9,72.1,29.98,SW,221,0.0,0.0,51,0.00,,---,0.00,VWS V14.01,2013-07-18 20:01:00,
2013-07-18 16:02:00,92.9,72.1,29.98,SW,221,0.0,0.0,51,0.00,,---,0.00,VWS V14.01,2013-07-18 20:02:00,
2013-07-18 16:03:00,92.9,72.1,29.97,SW,221,0.0,0.0,51,0.00,,---,0.00,VWS V14.01,2013-07-18 20:03:00,
2013-07-18 16:04:00,92.9,73.3,29.97,SW,221,0.0,1.0,53,0.00,,---,0.00,VWS V14.01,2013-07-18 20:04:00,
2013-07-18 16:06:00,92.9,71.5,29.97,SW,221,0.0,1.0,50,0.00,,---,0.00,VWS V14.01,2013-07-18 20:06:00,
2013-07-18 16:07:00,92.7,71.3,29.97,SW,221,0.0,1.0,50,0.00,,---,0.00,VWS V14.01,2013-07-18 20:07:00,
2013-07-18 16:08:00,92.7,71.9,29.97,SW,221,0.0,0.0,51,0.00,,---,0.00,VWS V14.01,2013-07-18 20:08:00,
2013-07-18 16:09:00,92.7,72.5,29.97,SW,221,0.0,1.0,52,0.00,,---,0.00,VWS V14.01,2013-07-18 20:09:00,
2013-07-18 16:11:00,92.7,72.5,29.97,SW,221,0.0,2.0,52,0.00,,---,0.00,VWS V14.01,2013-07-18 20:11:00,
2013-07-18 16:12:00,92.7,73.1,29.97,SW,221,0.0,0.0,53,0.00,,---,0.00,VWS V14.01,2013-07-18 20:12:00,
2013-07-18 16:13:00,92.7,73.6,29.97,SW,221,0.0,0.0,54,0.00,,---,0.00,VWS V14.01,2013-07-18 20:13:00,
2013-07-18 16:14:00,92.7,73.6,29.97,SW,221,0.0,0.0,54,0.00,,---,0.00,VWS V14.01,2013-07-18 20:14:00,
2013-07-18 16:16:00,92.7,74.2,29.97,SW,221,0.0,0.0,55,0.00,,---,0.00,VWS V14.01,2013-07-18 20:16:00,
2013-07-18 16:17:00,92.7,74.2,29.97,SW,221,0.0,0.0,55,0.00,,---,0.00,VWS V14.01,2013-07-18 20:17:00,
2013-07-18 16:18:00,92.7,74.2,29.97,SW,221,0.0,0.0,55,0.00,,---,0.00,VWS V14.01,2013-07-18 20:18:00,
2013-07-18 16:19:00,92.7,74.7,29.97,SW,221,0.0,0.0,56,0.00,,---,0.00,VWS V14.01,2013-07-18 20:19:00,
2013-07-18 16:21:00,92.5,72.9,29.97,SW,221,0.0,0.0,53,0.00,,---,0.00,VWS V14.01,2013-07-18 20:21:00,
2013-07-18 16:22:00,92.5,72.9,29.97,SW,221,0.0,1.0,53,0.00,,---,0.00,VWS V14.01,2013-07-18 20:22:00,
2013-07-18 16:23:00,92.5,72.9,29.97,SW,221,0.0,0.0,53,0.00,,---,0.00,VWS V14.01,2013-07-18 20:23:00,
2013-07-18 16:24:00,92.5,72.9,29.97,SW,221,0.0,0.0,53,0.00,,---,0.00,VWS V14.01,2013-07-18 20:24:00,
2013-07-18 16:26:00,92.3,73.3,29.97,SW,221,0.0,0.0,54,0.00,,---,0.00,VWS V14.01,2013-07-18 20:26:00,
2013-07-18 16:27:00,92.3,73.8,29.97,SW,221,0.0,0.0,55,0.00,,---,0.00,VWS V14.01,2013-07-18 20:27:00,
2013-07-18 16:29:00,92.3,73.8,29.97,SW,221,0.0,0.0,55,0.00,,---,0.00,VWS V14.01,2013-07-18 20:29:00,
2013-07-18 16:31:00,92.3,74.3,29.97,SW,221,0.0,0.0,56,0.00,,---,0.00,VWS V14.01,2013-07-18 20:31:00,
2013-07-18 16:32:00,92.3,74.3,29.96,SW,221,0.0,0.0,56,0.00,,---,0.00,VWS V14.01,2013-07-18 20:32:00,
2013-07-18 16:34:00,92.1,74.2,29.96,SW,221,0.0,0.0,56,0.00,,---,0.00,VWS V14.01,2013-07-18 20:34:00,
2013-07-18 16:35:00,92.1,74.2,29.96,SW,221,0.0,0.0,56,0.00,,---,0.00,VWS V14.01,2013-07-18 20:35:00,
2013-07-18 16:36:00,92.1,73.6,29.96,SW,221,0.0,0.0,55,0.00,,---,0.00,VWS V14.01,2013-07-18 20:36:00,
2013-07-18 16:37:00,92.1,74.2,29.96,SW,221,0.0,0.0,56,0.00,,---,0.00,VWS V14.01,2013-07-18 20:37:00,
2013-07-18 16:39:00,92.1,73.6,29.96,SW,221,0.0,0.0,55,0.00,,---,0.00,VWS V14.01,2013-07-18 20:39:00,
2013-07-18 16:40:00,92.1,74.2,29.96,SW,221,0.0,0.0,56,0.00,,---,0.00,VWS V14.01,2013-07-18 20:40:00,
2013-07-18 16:41:00,92.1,74.2,29.96,SW,221,0.0,0.0,56,0.00,,---,0.00,VWS V14.01,2013-07-18 20:41:00,
2013-07-18 16:42:00,91.8,71.7,29.96,SW,221,0.0,0.0,52,0.00,,---,0.00,VWS V14.01,2013-07-18 20:42:00,
2013-07-18 16:44:00,91.8,71.7,29.96,SW,221,0.0,0.0,52,0.00,,---,0.00,VWS V14.01,2013-07-18 20:44:00,
2013-07-18 16:45:00,91.8,71.7,29.96,SW,221,0.0,0.0,52,0.00,,---,0.00,VWS V14.01,2013-07-18 20:45:00,
2013-07-18 16:46:00,91.8,72.2,29.96,SW,221,0.0,0.0,53,0.00,,---,0.00,VWS V14.01,2013-07-18 20:46:00,
2013-07-18 16:47:00,91.8,71.7,29.96,SW,221,0.0,0.0,52,0.00,,---,0.00,VWS V14.01,2013-07-18 20:47:00,
2013-07-18 16:49:00,91.8,72.8,29.96,SW,221,2.0,2.0,54,0.00,,---,0.00,VWS V14.01,2013-07-18 20:49:00,
2013-07-18 16:50:00,91.8,72.8,29.96,SW,221,0.0,2.0,54,0.00,,---,0.00,VWS V14.01,2013-07-18 20:50:00,
2013-07-18 16:51:00,91.8,73.3,29.96,SW,221,0.0,0.0,55,0.00,,---,0.00,VWS V14.01,2013-07-18 20:51:00,
2013-07-18 16:52:00,91.8,73.3,29.96,SW,221,0.0,2.0,55,0.00,,---,0.00,VWS V14.01,2013-07-18 20:52:00,
2013-07-18 16:54:00,91.8,72.8,29.96,SW,221,0.0,1.0,54,0.00,,---,0.00,VWS V14.01,2013-07-18 20:54:00,
2013-07-18 16:55:00,91.8,72.8,29.96,SW,221,0.0,1.0,54,0.00,,---,0.00,VWS V14.01,2013-07-18 20:55:00,
2013-07-18 16:56:00,91.8,72.2,29.96,SW,221,0.0,0.0,53,0.00,,---,0.00,VWS V14.01,2013-07-18 20:56:00,
2013-07-18 16:57:00,91.8,72.8,29.96,SW,221,0.0,0.0,54,0.00,,---,0.00,VWS V14.01,2013-07-18 20:57:00,
2013-07-18 16:59:00,91.8,72.8,29.96,SW,221,0.0,0.0,54,0.00,,---,0.00,VWS V14.01,2013-07-18 20:59:00,
2013-07-18 17:00:00,91.8,72.2,29.96,SW,221,0.0,0.0,53,0.00,,---,0.00,VWS V14.01,2013-07-18 21:00:00,
2013-07-18 17:01:00,91.8,72.2,29.96,SW,221,0.0,0.0,53,0.00,,---,0.00,VWS V14.01,2013-07-18 21:01:00,
2013-07-18 17:02:00,91.8,72.8,29.95,SW,221,0.0,0.0,54,0.00,,---,0.00,VWS V14.01,2013-07-18 21:02:00,
2013-07-18 17:04:00,92.1,73.6,29.95,SW,221,0.0,0.0,55,0.00,,---,0.00,VWS V14.01,2013-07-18 21:04:00,
2013-07-18 17:05:00,92.1,73.6,29.95,SW,221,0.0,0.0,55,0.00,,---,0.00,VWS V14.01,2013-07-18 21:05:00,
2013-07-18 17:06:00,92.1,73.6,29.95,SW,221,0.0,0.0,55,0.00,,---,0.00,VWS V14.01,2013-07-18 21:06:00,
2013-07-18 17:07:00,92.1,73.6,29.95,SW,221,0.0,1.0,55,0.00,,---,0.00,VWS V14.01,2013-07-18 21:07:00,
2013-07-18 17:10:00,92.1,73.6,29.95,SW,221,0.0,0.0,55,0.00,,---,0.00,VWS V14.01,2013-07-18 21:10:00,
2013-07-18 17:11:00,92.1,73.1,29.95,SW,221,0.0,0.0,54,0.00,,---,0.00,VWS V14.01,2013-07-18 21:11:00,
2013-07-18 17:12:00,91.8,72.2,29.95,SW,221,0.0,0.0,53,0.00,,---,0.00,VWS V14.01,2013-07-18 21:12:00,
2013-07-18 17:15:00,91.8,71.1,29.95,SW,221,0.0,0.0,51,0.00,,---,0.00,VWS V14.01,2013-07-18 21:15:00,
2013-07-18 17:16:00,91.8,71.7,29.95,SW,221,0.0,0.0,52,0.00,,---,0.00,VWS V14.01,2013-07-18 21:16:00,
2013-07-18 17:18:00,92.1,72.0,29.95,SW,221,0.0,1.0,52,0.00,,---,0.00,VWS V14.01,2013-07-18 21:18:00,
2013-07-18 17:20:00,92.1,72.0,29.95,SW,221,0.0,1.0,52,0.00,,---,0.00,VWS V14.01,2013-07-18 21:20:00,
2013-07-18 17:21:00,92.1,71.4,29.95,SW,221,0.0,0.0,51,0.00,,---,0.00,VWS V14.01,2013-07-18 21:21:00,
2013-07-18 17:23:00,92.1,72.0,29.95,SW,221,0.0,0.0,52,0.00,,---,0.00,VWS V14.01,2013-07-18 21:23:00,
2013-07-18 17:25:00,92.1,72.0,29.95,SW,221,2.0,2.0,52,0.00,,---,0.00,VWS V14.01,2013-07-18 21:25:00,
2013-07-18 17:26:00,92.1,72.0,29.95,SW,221,0.0,3.0,52,0.00,,---,0.00,VWS V14.01,2013-07-18 21:26:00,
2013-07-18 17:28:00,92.1,72.5,29.95,SW,221,0.0,0.0,53,0.00,,---,0.00,VWS V14.01,2013-07-18 21:28:00,
2013-07-18 17:30:00,92.1,72.5,29.95,SW,221,0.0,0.0,53,0.00,,---,0.00,VWS V14.01,2013-07-18 21:30:00,
2013-07-18 17:31:00,92.1,73.6,29.95,SW,221,0.0,0.0,55,0.00,,---,0.00,VWS V14.01,2013-07-18 21:31:00,
2013-07-18 17:33:00,92.1,73.6,29.95,SW,221,0.0,3.0,55,0.00,,---,0.00,VWS V14.01,2013-07-18 21:33:00,
2013-07-18 17:35:00,92.1,73.1,29.95,SW,221,0.0,1.0,54,0.00,,---,0.00,VWS V14.01,2013-07-18 21:35:00,
2013-07-18 17:36:00,92.1,73.1,29.95,SW,221,0.0,1.0,54,0.00,,---,0.00,VWS V14.01,2013-07-18 21:36:00,
2013-07-18 17:38:00,92.1,73.6,29.95,SW,221,0.0,0.0,55,0.00,,---,0.00,VWS V14.01,2013-07-18 21:38:00,
2013-07-18 17:40:00,92.1,73.6,29.95,SW,221,0.0,0.0,55,0.00,,---,0.00,VWS V14.01,2013-07-18 21:40:00,
2013-07-18 17:41:00,92.1,73.6,29.95,SW,221,0.0,0.0,55,0.00,,---,0.00,VWS V14.01,2013-07-18 21:41:00,
2013-07-18 17:43:00,91.8,73.3,29.95,SW,221,0.0,0.0,55,0.00,,---,0.00,VWS V14.01,2013-07-18 21:43:00,
2013-07-18 17:45:00,91.8,73.3,29.95,SW,221,0.0,0.0,55,0.00,,---,0.00,VWS V14.01,2013-07-18 21:45:00,
2013-07-18 17:46:00,91.8,73.3,29.95,SW,221,0.0,1.0,55,0.00,,---,0.00,VWS V14.01,2013-07-18 21:46:00,
2013-07-18 17:48:00,91.8,74.4,29.95,SW,221,1.0,1.0,57,0.00,,---,0.00,VWS V14.01,2013-07-18 21:48:00,
2013-07-18 17:50:00,91.8,74.4,29.95,SW,221,0.0,1.0,57,0.00,,---,0.00,VWS V14.01,2013-07-18 21:50:00,
2013-07-18 17:51:00,91.8,73.3,29.95,SW,221,0.0,1.0,55,0.00,,---,0.00,VWS V14.01,2013-07-18 21:51:00,
2013-07-18 17:53:00,91.8,73.3,29.95,SW,221,0.0,0.0,55,0.00,,---,0.00,VWS V14.01,2013-07-18 21:53:00,
2013-07-18 17:55:00,91.8,73.9,29.95,SW,221,0.0,0.0,56,0.00,,---,0.00,VWS V14.01,2013-07-18 21:55:00,
2013-07-18 17:56:00,91.8,73.9,29.95,SW,221,0.0,0.0,56,0.00,,---,0.00,VWS V14.01,2013-07-18 21:56:00,
2013-07-18 17:58:00,91.6,74.2,29.95,SW,221,0.0,0.0,57,0.00,,---,0.00,VWS V14.01,2013-07-18 21:58:00,
2013-07-18 18:00:00,91.6,74.7,29.95,SW,221,0.0,0.0,58,0.00,,---,0.00,VWS V14.01,2013-07-18 22:00:00,
2013-07-18 18:01:00,91.6,75.2,29.95,SW,221,0.0,0.0,59,0.00,,---,0.00,VWS V14.01,2013-07-18 22:01:00,
2013-07-18 18:02:00,91.6,75.8,29.95,SW,221,0.0,1.0,60,0.00,,---,0.00,VWS V14.01,2013-07-18 22:02:00,
2013-07-18 18:03:00,91.6,76.2,29.95,SW,221,0.0,0.0,61,0.00,,---,0.00,VWS V14.01,2013-07-18 22:03:00,
2013-07-18 18:05:00,91.6,76.2,29.95,SW,221,0.0,0.0,61,0.00,,---,0.00,VWS V14.01,2013-07-18 22:05:00,
2013-07-18 18:06:00,91.6,75.8,29.95,SW,221,0.0,0.0,60,0.00,,---,0.00,VWS V14.01,2013-07-18 22:06:00,
2013-07-18 18:07:00,91.6,75.8,29.95,SW,221,0.0,0.0,60,0.00,,---,0.00,VWS V14.01,2013-07-18 22:07:00,
2013-07-18 18:09:00,91.4,76.1,29.95,SW,221,0.0,0.0,61,0.00,,---,0.00,VWS V14.01,2013-07-18 22:09:00,
2013-07-18 18:10:00,91.4,76.6,29.95,SW,221,0.0,0.0,62,0.00,,---,0.00,VWS V14.01,2013-07-18 22:10:00,
2013-07-18 18:12:00,91.4,76.1,29.95,SW,221,0.0,0.0,61,0.00,,---,0.00,VWS V14.01,2013-07-18 22:12:00,
2013-07-18 18:14:00,91.2,76.4,29.95,SW,221,0.0,0.0,62,0.00,,---,0.00,VWS V14.01,2013-07-18 22:14:00,
2013-07-18 18:16:00,91.0,76.2,29.95,SW,221,0.0,0.0,62,0.00,,---,0.00,VWS V14.01,2013-07-18 22:16:00,
2013-07-18 18:17:00,91.0,76.2,29.95,SW,221,0.0,0.0,62,0.00,,---,0.00,VWS V14.01,2013-07-18 22:17:00,
2013-07-18 18:19:00,90.7,75.9,29.95,SW,221,0.0,0.0,62,0.00,,---,0.00,VWS V14.01,2013-07-18 22:19:00,
2013-07-18 18:21:00,90.7,76.4,29.95,SW,221,0.0,0.0,63,0.00,,---,0.00,VWS V14.01,2013-07-18 22:21:00,
2013-07-18 18:22:00,90.5,76.2,29.95,SW,221,0.0,0.0,63,0.00,,---,0.00,VWS V14.01,2013-07-18 22:22:00,
2013-07-18 18:24:00,90.3,76.5,29.95,SW,221,0.0,0.0,64,0.00,,---,0.00,VWS V14.01,2013-07-18 22:24:00,
2013-07-18 18:26:00,90.3,76.5,29.95,SW,221,0.0,0.0,64,0.00,,---,0.00,VWS V14.01,2013-07-18 22:26:00,
2013-07-18 18:27:00,90.1,75.8,29.95,SW,221,0.0,0.0,63,0.00,,---,0.00,VWS V14.01,2013-07-18 22:27:00,
2013-07-18 18:29:00,89.9,75.6,29.95,SW,221,0.0,0.0,63,0.00,,---,0.00,VWS V14.01,2013-07-18 22:29:00,
2013-07-18 18:31:00,89.7,75.9,29.95,SW,221,0.0,0.0,64,0.00,,---,0.00,VWS V14.01,2013-07-18 22:31:00,
2013-07-18 18:32:00,89.7,76.4,29.96,SW,221,0.0,0.0,65,0.00,,---,0.00,VWS V14.01,2013-07-18 22:32:00,
2013-07-18 18:34:00,89.5,76.7,29.96,SW,221,0.0,0.0,66,0.00,,---,0.00,VWS V14.01,2013-07-18 22:34:00,
2013-07-18 18:36:00,89.5,77.1,29.96,SW,221,0.0,0.0,67,0.00,,---,0.00,VWS V14.01,2013-07-18 22:36:00,
2013-07-18 18:37:00,89.3,76.9,29.96,SW,221,0.0,0.0,67,0.00,,---,0.00,VWS V14.01,2013-07-18 22:37:00,
2013-07-18 18:39:00,89.3,76.9,29.96,SW,221,0.0,0.0,67,0.00,,---,0.00,VWS V14.01,2013-07-18 22:39:00,
2013-07-18 18:41:00,89.0,76.6,29.96,SW,221,0.0,0.0,67,0.00,,---,0.00,VWS V14.01,2013-07-18 22:41:00,
2013-07-18 18:42:00,89.0,76.6,29.96,SW,221,0.0,0.0,67,0.00,,---,0.00,VWS V14.01,2013-07-18 22:42:00,
2013-07-18 18:44:00,88.8,76.4,29.96,SW,221,0.0,0.0,67,0.00,,---,0.00,VWS V14.01,2013-07-18 22:44:00,
2013-07-18 18:46:00,88.8,76.4,29.96,SW,221,0.0,0.0,67,0.00,,---,0.00,VWS V14.01,2013-07-18 22:46:00,
2013-07-18 18:47:00,88.8,76.4,29.96,SW,221,0.0,0.0,67,0.00,,---,0.00,VWS V14.01,2013-07-18 22:47:00,
2013-07-18 18:49:00,88.8,76.9,29.97,SW,221,0.0,0.0,68,0.00,,---,0.00,VWS V14.01,2013-07-18 22:49:00,
2013-07-18 18:51:00,88.6,77.1,29.97,SW,221,0.0,0.0,69,0.00,,---,0.00,VWS V14.01,2013-07-18 22:51:00,
2013-07-18 18:52:00,88.6,77.1,29.97,SW,221,0.0,0.0,69,0.00,,---,0.00,VWS V14.01,2013-07-18 22:52:00,
2013-07-18 18:54:00,88.4,77.4,29.97,SW,221,0.0,0.0,70,0.00,,---,0.00,VWS V14.01,2013-07-18 22:54:00,
2013-07-18 18:56:00,88.2,77.2,29.97,SW,221,0.0,0.0,70,0.00,,---,0.00,VWS V14.01,2013-07-18 22:56:00,
2013-07-18 18:57:00,88.0,77.0,29.97,SW,221,0.0,0.0,70,0.00,,---,0.00,VWS V14.01,2013-07-18 22:57:00,
2013-07-18 18:59:00,88.0,77.4,29.97,SW,221,0.0,0.0,71,0.00,,---,0.00,VWS V14.01,2013-07-18 22:59:00,
2013-07-18 19:01:00,87.8,77.7,29.97,SW,221,0.0,0.0,72,0.00,,---,0.00,VWS V14.01,2013-07-18 23:01:00,
2013-07-18 19:02:00,87.6,77.5,29.97,SW,221,0.0,0.0,72,0.00,,---,0.00,VWS V14.01,2013-07-18 23:02:00,
2013-07-18 19:04:00,87.6,77.0,29.97,SW,221,0.0,0.0,71,0.00,,---,0.00,VWS V14.01,2013-07-18 23:04:00,
2013-07-18 19:06:00,87.4,76.8,29.97,SW,221,0.0,0.0,71,0.00,,---,0.00,VWS V14.01,2013-07-18 23:06:00,
2013-07-18 19:07:00,87.4,76.8,29.97,SW,221,0.0,0.0,71,0.00,,---,0.00,VWS V14.01,2013-07-18 23:07:00,
2013-07-18 19:09:00,87.2,77.1,29.97,SW,221,0.0,0.0,72,0.00,,---,0.00,VWS V14.01,2013-07-18 23:09:00,
2013-07-18 19:11:00,87.0,77.3,29.97,SW,221,0.0,0.0,73,0.00,,---,0.00,VWS V14.01,2013-07-18 23:11:00,
2013-07-18 19:12:00,87.0,77.3,29.97,SW,221,0.0,0.0,73,0.00,,---,0.00,VWS V14.01,2013-07-18 23:12:00,
2013-07-18 19:14:00,87.0,77.3,29.97,SW,221,0.0,0.0,73,0.00,,---,0.00,VWS V14.01,2013-07-18 23:14:00,
2013-07-18 19:16:00,86.7,77.0,29.97,SW,221,0.0,0.0,73,0.00,,---,0.00,VWS V14.01,2013-07-18 23:16:00,
2013-07-18 19:17:00,86.5,76.8,29.96,SW,221,0.0,0.0,73,0.00,,---,0.00,VWS V14.01,2013-07-18 23:17:00,
2013-07-18 19:19:00,86.5,76.8,29.96,SW,221,0.0,0.0,73,0.00,,---,0.00,VWS V14.01,2013-07-18 23:19:00,
2013-07-18 19:22:00,86.3,77.0,29.96,SW,221,0.0,0.0,74,0.00,,---,0.00,VWS V14.01,2013-07-18 23:22:00,
2013-07-18 19:23:00,86.3,77.0,29.96,SW,221,0.0,0.0,74,0.00,,---,0.00,VWS V14.01,2013-07-18 23:23:00,
2013-07-18 19:24:00,86.3,77.0,29.96,SW,221,0.0,0.0,74,0.00,,---,0.00,VWS V14.01,2013-07-18 23:24:00,
2013-07-18 19:27:00,86.1,77.2,29.96,SW,221,0.0,0.0,75,0.00,,---,0.00,VWS V14.01,2013-07-18 23:27:00,
2013-07-18 19:28:00,86.1,77.2,29.96,SW,221,0.0,0.0,75,0.00,,---,0.00,VWS V14.01,2013-07-18 23:28:00,
2013-07-18 19:29:00,85.9,77.1,29.96,SW,221,0.0,0.0,75,0.00,,---,0.00,VWS V14.01,2013-07-18 23:29:00,
2013-07-18 19:32:00,85.9,77.1,29.96,SW,221,0.0,0.0,75,0.00,,---,0.00,VWS V14.01,2013-07-18 23:32:00,
2013-07-18 19:33:00,85.9,77.1,29.97,SW,221,0.0,0.0,75,0.00,,---,0.00,VWS V14.01,2013-07-18 23:33:00,
2013-07-18 19:34:00,85.7,76.5,29.97,SW,221,0.0,0.0,74,0.00,,---,0.00,VWS V14.01,2013-07-18 23:34:00,
2013-07-18 19:37:00,85.5,75.9,29.97,SW,221,0.0,0.0,73,0.00,,---,0.00,VWS V14.01,2013-07-18 23:37:00,
2013-07-18 19:38:00,85.5,75.9,29.97,SW,221,0.0,0.0,73,0.00,,---,0.00,VWS V14.01,2013-07-18 23:38:00,
2013-07-18 19:39:00,85.5,75.9,29.97,SW,221,0.0,0.0,73,0.00,,---,0.00,VWS V14.01,2013-07-18 23:39:00,
2013-07-18 19:42:00,85.3,75.2,29.97,SW,221,0.0,0.0,72,0.00,,---,0.00,VWS V14.01,2013-07-18 23:42:00,
2013-07-18 19:43:00,85.3,75.2,29.97,SW,221,0.0,0.0,72,0.00,,---,0.00,VWS V14.01,2013-07-18 23:43:00,
2013-07-18 19:44:00,85.3,75.2,29.97,SW,221,0.0,0.0,72,0.00,,---,0.00,VWS V14.01,2013-07-18 23:44:00,
2013-07-18 19:47:00,85.1,75.1,29.97,SW,221,0.0,0.0,72,0.00,,---,0.00,VWS V14.01,2013-07-18 23:47:00,
2013-07-18 19:48:00,85.1,75.1,29.97,SW,221,0.0,0.0,72,0.00,,---,0.00,VWS V14.01,2013-07-18 23:48:00,
2013-07-18 19:50:00,85.1,75.1,29.97,SW,221,0.0,0.0,72,0.00,,---,0.00,VWS V14.01,2013-07-18 23:50:00,
2013-07-18 19:52:00,84.9,75.3,29.97,SW,221,0.0,0.0,73,0.00,,---,0.00,VWS V14.01,2013-07-18 23:52:00,
2013-07-18 19:53:00,84.9,75.3,29.97,SW,221,0.0,0.0,73,0.00,,---,0.00,VWS V14.01,2013-07-18 23:53:00,
2013-07-18 19:55:00,84.9,75.3,29.97,SW,221,0.0,0.0,73,0.00,,---,0.00,VWS V14.01,2013-07-18 23:55:00,
2013-07-18 19:57:00,84.7,74.7,29.97,SW,221,0.0,0.0,72,0.00,,---,0.00,VWS V14.01,2013-07-18 23:57:00,
2013-07-18 19:58:00,84.7,74.7,29.97,SW,221,0.0,0.0,72,0.00,,---,0.00,VWS V14.01,2013-07-18 23:58:00,
2013-07-18 20:00:00,84.7,75.1,29.97,SW,221,0.0,0.0,73,0.00,,---,0.00,VWS V14.01,2013-07-19 00:00:00,
2013-07-18 20:02:00,84.5,74.9,29.97,SW,221,0.0,0.0,73,0.00,,---,0.00,VWS V14.01,2013-07-19 00:02:00,
2013-07-18 20:03:00,84.5,74.9,29.97,SW,221,0.0,0.0,73,0.00,,---,0.00,VWS V14.01,2013-07-19 00:03:00,
2013-07-18 20:05:00,84.5,74.9,29.97,SW,221,0.0,0.0,73,0.00,,---,0.00,VWS V14.01,2013-07-19 00:05:00,
2013-07-18 20:07:00,84.5,74.9,29.97,SW,221,0.0,0.0,73,0.00,,---,0.00,VWS V14.01,2013-07-19 00:07:00,
2013-07-18 20:08:00,84.3,74.7,29.97,SW,221,0.0,0.0,73,0.00,,---,0.00,VWS V14.01,2013-07-19 00:08:00,
2013-07-18 20:10:00,84.3,75.1,29.97,SW,221,0.0,0.0,74,0.00,,---,0.00,VWS V14.01,2013-07-19 00:10:00,
2013-07-18 20:12:00,84.3,75.1,29.97,SW,221,0.0,0.0,74,0.00,,---,0.00,VWS V14.01,2013-07-19 00:12:00,
2013-07-18 20:13:00,84.3,75.1,29.97,SW,221,0.0,0.0,74,0.00,,---,0.00,VWS V14.01,2013-07-19 00:13:00,
2013-07-18 20:15:00,84.1,74.9,29.97,SW,221,0.0,0.0,74,0.00,,---,0.00,VWS V14.01,2013-07-19 00:15:00,
2013-07-18 20:17:00,84.1,74.9,29.96,SW,221,0.0,0.0,74,0.00,,---,0.00,VWS V14.01,2013-07-19 00:17:00,
2013-07-18 20:18:00,84.1,75.3,29.96,SW,221,0.0,0.0,75,0.00,,---,0.00,VWS V14.01,2013-07-19 00:18:00,
2013-07-18 20:20:00,84.0,75.2,29.96,SW,221,0.0,0.0,75,0.00,,---,0.00,VWS V14.01,2013-07-19 00:20:00,
2013-07-18 20:22:00,84.0,75.2,29.96,SW,221,0.0,0.0,75,0.00,,---,0.00,VWS V14.01,2013-07-19 00:22:00,
2013-07-18 20:23:00,84.0,75.2,29.96,SW,221,0.0,0.0,75,0.00,,---,0.00,VWS V14.01,2013-07-19 00:23:00,
2013-07-18 20:25:00,83.8,75.0,29.96,SW,221,0.0,0.0,75,0.00,,---,0.00,VWS V14.01,2013-07-19 00:25:00,
2013-07-18 20:27:00,83.8,75.4,29.96,SW,221,0.0,0.0,76,0.00,,---,0.00,VWS V14.01,2013-07-19 00:27:00,
2013-07-18 20:28:00,83.8,75.4,29.96,SW,221,0.0,0.0,76,0.00,,---,0.00,VWS V14.01,2013-07-19 00:28:00,
2013-07-18 20:30:00,83.8,75.4,29.96,SW,221,0.0,0.0,76,0.00,,---,0.00,VWS V14.01,2013-07-19 00:30:00,
2013-07-18 20:32:00,83.6,75.6,29.95,SW,221,0.0,0.0,77,0.00,,---,0.00,VWS V14.01,2013-07-19 00:32:00,
2013-07-18 20:33:00,83.6,75.6,29.95,SW,221,0.0,0.0,77,0.00,,---,0.00,VWS V14.01,2013-07-19 00:33:00,
2013-07-18 20:35:00,83.6,75.6,29.95,SW,221,0.0,0.0,77,0.00,,---,0.00,VWS V14.01,2013-07-19 00:35:00,
2013-07-18 20:37:00,83.4,75.8,29.95,SW,221,0.0,0.0,78,0.00,,---,0.00,VWS V14.01,2013-07-19 00:37:00,
2013-07-18 20:38:00,83.4,75.8,29.95,SW,221,0.0,0.0,78,0.00,,---,0.00,VWS V14.01,2013-07-19 00:38:00,
2013-07-18 20:41:00,83.4,75.8,29.95,SW,221,0.0,0.0,78,0.00,,---,0.00,VWS V14.01,2013-07-19 00:41:00,
2013-07-18 20:42:00,83.4,75.8,29.95,SW,221,0.0,0.0,78,0.00,,---,0.00,VWS V14.01,2013-07-19 00:42:00,
2013-07-18 20:43:00,83.2,75.6,29.95,SW,221,0.0,0.0,78,0.00,,---,0.00,VWS V14.01,2013-07-19 00:43:00,
2013-07-18 20:46:00,83.2,75.6,29.95,SW,221,0.0,0.0,78,0.00,,---,0.00,VWS V14.01,2013-07-19 00:46:00,
2013-07-18 20:47:00,83.2,75.6,29.94,SW,221,0.0,0.0,78,0.00,,---,0.00,VWS V14.01,2013-07-19 00:47:00,
2013-07-18 20:48:00,83.2,75.6,29.94,SW,221,0.0,0.0,78,0.00,,---,0.00,VWS V14.01,2013-07-19 00:48:00,
2013-07-18 20:51:00,83.0,75.4,29.94,SW,221,0.0,0.0,78,0.00,,---,0.00,VWS V14.01,2013-07-19 00:51:00,
2013-07-18 20:53:00,82.8,75.2,29.94,SW,221,0.0,0.0,78,0.00,,---,0.00,VWS V14.01,2013-07-19 00:53:00,
2013-07-18 20:56:00,82.8,75.2,29.94,SW,221,0.0,0.0,78,0.00,,---,0.00,VWS V14.01,2013-07-19 00:56:00,
2013-07-18 20:58:00,82.6,75.1,29.94,SW,221,0.0,0.0,78,0.00,,---,0.00,VWS V14.01,2013-07-19 00:58:00,
2013-07-18 21:01:00,82.4,75.2,29.94,SW,221,0.0,0.0,79,0.00,,---,0.00,VWS V14.01,2013-07-19 01:01:00,
2013-07-18 21:03:00,82.4,75.2,29.95,SW,221,0.0,0.0,79,0.00,,---,0.00,VWS V14.01,2013-07-19 01:03:00,
2013-07-18 21:04:00,82.4,75.2,29.95,SW,221,0.0,0.0,79,0.00,,---,0.00,VWS V14.01,2013-07-19 01:04:00,
2013-07-18 21:06:00,82.4,75.2,29.95,SW,221,0.0,0.0,79,0.00,,---,0.00,VWS V14.01,2013-07-19 01:06:00,
2013-07-18 21:08:00,82.2,75.0,29.95,SW,221,0.0,0.0,79,0.00,,---,0.00,VWS V14.01,2013-07-19 01:08:00,
2013-07-18 21:09:00,82.2,75.0,29.95,SW,221,0.0,0.0,79,0.00,,---,0.00,VWS V14.01,2013-07-19 01:09:00,
2013-07-18 21:11:00,82.0,74.8,29.95,SW,221,0.0,0.0,79,0.00,,---,0.00,VWS V14.01,2013-07-19 01:11:00,
2013-07-18 21:13:00,82.0,74.8,29.95,SW,221,0.0,0.0,79,0.00,,---,0.00,VWS V14.01,2013-07-19 01:13:00,
2013-07-18 21:14:00,82.0,74.8,29.95,SW,221,0.0,0.0,79,0.00,,---,0.00,VWS V14.01,2013-07-19 01:14:00,
2013-07-18 21:16:00,81.8,74.7,29.95,SW,221,0.0,0.0,79,0.00,,---,0.00,VWS V14.01,2013-07-19 01:16:00,
2013-07-18 21:18:00,81.6,74.5,29.95,SW,221,0.0,0.0,79,0.00,,---,0.00,VWS V14.01,2013-07-19 01:18:00,
2013-07-18 21:19:00,81.6,74.8,29.95,SW,221,0.0,0.0,80,0.00,,---,0.00,VWS V14.01,2013-07-19 01:19:00,
2013-07-18 21:21:00,81.6,74.8,29.95,SW,221,0.0,0.0,80,0.00,,---,0.00,VWS V14.01,2013-07-19 01:21:00,
2013-07-18 21:23:00,81.4,74.6,29.95,SW,221,0.0,0.0,80,0.00,,---,0.00,VWS V14.01,2013-07-19 01:23:00,
2013-07-18 21:24:00,81.4,74.6,29.95,SW,221,0.0,0.0,80,0.00,,---,0.00,VWS V14.01,2013-07-19 01:24:00,
2013-07-18 21:26:00,81.2,74.4,29.95,SW,221,0.0,0.0,80,0.00,,---,0.00,VWS V14.01,2013-07-19 01:26:00,
2013-07-18 21:28:00,81.2,74.8,29.95,SW,221,0.0,0.0,81,0.00,,---,0.00,VWS V14.01,2013-07-19 01:28:00,
2013-07-18 21:29:00,81.1,74.7,29.95,SW,221,0.0,0.0,81,0.00,,---,0.00,VWS V14.01,2013-07-19 01:29:00,
2013-07-18 21:31:00,81.1,74.7,29.95,SW,221,0.0,0.0,81,0.00,,---,0.00,VWS V14.01,2013-07-19 01:31:00,
2013-07-18 21:33:00,80.9,74.5,29.96,SW,221,0.0,0.0,81,0.00,,---,0.00,VWS V14.01,2013-07-19 01:33:00,
2013-07-18 21:34:00,80.9,74.5,29.96,SW,221,0.0,1.0,81,0.00,,---,0.00,VWS V14.01,2013-07-19 01:34:00,
2013-07-18 21:36:00,80.7,74.3,29.96,SW,221,0.0,0.0,81,0.00,,---,0.00,VWS V14.01,2013-07-19 01:36:00,
2013-07-18 21:38:00,80.7,74.3,29.96,SW,221,0.0,0.0,81,0.00,,---,0.00,VWS V14.01,2013-07-19 01:38:00,
2013-07-18 21:39:00,80.7,74.3,29.96,SW,221,0.0,0.0,81,0.00,,---,0.00,VWS V14.01,2013-07-19 01:39:00,
2013-07-18 21:40:00,80.7,74.3,29.96,SW,221,0.0,0.0,81,0.00,,---,0.00,VWS V14.01,2013-07-19 01:40:00,
2013-07-18 21:41:00,80.5,74.1,29.96,SW,221,0.0,0.0,81,0.00,,---,0.00,VWS V14.01,2013-07-19 01:41:00,
2013-07-18 21:43:00,80.5,74.5,29.96,SW,221,0.0,0.0,82,0.00,,---,0.00,VWS V14.01,2013-07-19 01:43:00,
2013-07-18 21:44:00,80.5,74.5,29.96,SW,221,0.0,0.0,82,0.00,,---,0.00,VWS V14.01,2013-07-19 01:44:00,
2013-07-18 21:45:00,80.3,74.3,29.96,SW,221,0.0,0.0,82,0.00,,---,0.00,VWS V14.01,2013-07-19 01:45:00,
2013-07-18 21:46:00,80.3,74.3,29.96,SW,221,0.0,0.0,82,0.00,,---,0.00,VWS V14.01,2013-07-19 01:46:00,
2013-07-18 21:48:00,80.1,74.1,29.96,SW,221,0.0,0.0,82,0.00,,---,0.00,VWS V14.01,2013-07-19 01:48:00,
2013-07-18 21:49:00,80.1,74.1,29.96,SW,221,0.0,0.0,82,0.00,,---,0.00,VWS V14.01,2013-07-19 01:49:00,
2013-07-18 21:50:00,80.1,74.1,29.96,SW,221,0.0,0.0,82,0.00,,---,0.00,VWS V14.01,2013-07-19 01:50:00,
2013-07-18 21:51:00,79.9,73.9,29.96,SW,221,0.0,0.0,82,0.00,,---,0.00,VWS V14.01,2013-07-19 01:51:00,
2013-07-18 21:53:00,79.9,74.3,29.96,SW,221,0.0,0.0,83,0.00,,---,0.00,VWS V14.01,2013-07-19 01:53:00,
2013-07-18 21:54:00,79.9,74.3,29.96,SW,221,0.0,0.0,83,0.00,,---,0.00,VWS V14.01,2013-07-19 01:54:00,
2013-07-18 21:55:00,79.9,74.3,29.96,SW,221,0.0,0.0,83,0.00,,---,0.00,VWS V14.01,2013-07-19 01:55:00,
2013-07-18 21:56:00,79.8,74.2,29.96,SW,221,0.0,0.0,83,0.00,,---,0.00,VWS V14.01,2013-07-19 01:56:00,
2013-07-18 21:59:00,79.8,74.2,29.96,SW,221,0.0,0.0,83,0.00,,---,0.00,VWS V14.01,2013-07-19 01:59:00,
2013-07-18 22:00:00,79.6,74.0,29.96,SW,221,0.0,0.0,83,0.00,,---,0.00,VWS V14.01,2013-07-19 02:00:00,
2013-07-18 22:01:00,79.6,74.0,29.96,SW,221,0.0,0.0,83,0.00,,---,0.00,VWS V14.01,2013-07-19 02:01:00,
2013-07-18 22:04:00,79.4,73.8,29.96,SW,221,0.0,0.0,83,0.00,,---,0.00,VWS V14.01,2013-07-19 02:04:00,
2013-07-18 22:05:00,79.4,73.8,29.96,SW,221,0.0,0.0,83,0.00,,---,0.00,VWS V14.01,2013-07-19 02:05:00,
2013-07-18 22:06:00,79.4,73.8,29.96,SW,221,0.0,0.0,83,0.00,,---,0.00,VWS V14.01,2013-07-19 02:06:00,
2013-07-18 22:09:00,79.2,73.9,29.96,SW,221,0.0,0.0,84,0.00,,---,0.00,VWS V14.01,2013-07-19 02:09:00,
2013-07-18 22:10:00,79.2,73.9,29.96,SW,221,0.0,0.0,84,0.00,,---,0.00,VWS V14.01,2013-07-19 02:10:00,
2013-07-18 22:11:00,79.2,73.9,29.96,SW,221,0.0,0.0,84,0.00,,---,0.00,VWS V14.01,2013-07-19 02:11:00,
2013-07-18 22:14:00,79.0,73.8,29.96,SW,221,0.0,0.0,84,0.00,,---,0.00,VWS V14.01,2013-07-19 02:14:00,
2013-07-18 22:15:00,79.0,73.8,29.96,SW,221,0.0,0.0,84,0.00,,---,0.00,VWS V14.01,2013-07-19 02:15:00,
2013-07-18 22:16:00,79.0,73.8,29.96,SW,221,0.0,0.0,84,0.00,,---,0.00,VWS V14.01,2013-07-19 02:16:00,
2013-07-18 22:19:00,78.8,73.6,29.96,SW,221,0.0,0.0,84,0.00,,---,0.00,VWS V14.01,2013-07-19 02:19:00,
2013-07-18 22:20:00,78.8,73.6,29.96,SW,221,0.0,0.0,84,0.00,,---,0.00,VWS V14.01,2013-07-19 02:20:00,
2013-07-18 22:21:00,78.8,73.6,29.96,SW,221,0.0,0.0,84,0.00,,---,0.00,VWS V14.01,2013-07-19 02:21:00,
2013-07-18 22:24:00,78.6,73.4,29.96,SW,221,0.0,0.0,84,0.00,,---,0.00,VWS V14.01,2013-07-19 02:24:00,
2013-07-18 22:25:00,78.6,73.4,29.96,SW,221,0.0,0.0,84,0.00,,---,0.00,VWS V14.01,2013-07-19 02:25:00,
2013-07-18 22:26:00,78.6,73.4,29.96,SW,221,0.0,0.0,84,0.00,,---,0.00,VWS V14.01,2013-07-19 02:26:00,
2013-07-18 22:29:00,78.5,73.6,29.96,SW,221,0.0,1.0,85,0.00,,---,0.00,VWS V14.01,2013-07-19 02:29:00,
2013-07-18 22:30:00,78.5,73.6,29.96,SW,221,0.0,0.0,85,0.00,,---,0.00,VWS V14.01,2013-07-19 02:30:00,
2013-07-18 22:31:00,78.5,73.6,29.96,SW,221,0.0,0.0,85,0.00,,---,0.00,VWS V14.01,2013-07-19 02:31:00,
2013-07-18 22:34:00,78.3,73.4,29.95,SW,221,0.0,0.0,85,0.00,,---,0.00,VWS V14.01,2013-07-19 02:34:00,
2013-07-18 22:35:00,78.3,73.4,29.95,SW,221,0.0,0.0,85,0.00,,---,0.00,VWS V14.01,2013-07-19 02:35:00,
2013-07-18 22:36:00,78.3,73.4,29.95,SW,221,0.0,0.0,85,0.00,,---,0.00,VWS V14.01,2013-07-19 02:36:00,
2013-07-18 22:39:00,78.1,73.2,29.95,SW,221,0.0,0.0,85,0.00,,---,0.00,VWS V14.01,2013-07-19 02:39:00,
2013-07-18 22:40:00,78.1,73.2,29.95,SW,221,0.0,0.0,85,0.00,,---,0.00,VWS V14.01,2013-07-19 02:40:00,
2013-07-18 22:41:00,78.1,73.2,29.95,SW,221,0.0,0.0,85,0.00,,---,0.00,VWS V14.01,2013-07-19 02:41:00,
2013-07-18 22:44:00,78.1,73.2,29.95,SW,221,0.0,0.0,85,0.00,,---,0.00,VWS V14.01,2013-07-19 02:44:00,
2013-07-18 22:45:00,77.9,73.0,29.95,SW,221,0.0,0.0,85,0.00,,---,0.00,VWS V14.01,2013-07-19 02:45:00,
2013-07-18 22:46:00,77.9,73.0,29.95,SW,221,1.0,3.0,85,0.00,,---,0.00,VWS V14.01,2013-07-19 02:46:00,
2013-07-18 22:49:00,77.9,73.0,29.95,SW,221,0.0,0.0,85,0.00,,---,0.00,VWS V14.01,2013-07-19 02:49:00,
2013-07-18 22:50:00,77.9,73.0,29.95,SW,221,0.0,0.0,85,0.00,,---,0.00,VWS V14.01,2013-07-19 02:50:00,
2013-07-18 22:51:00,77.9,73.0,29.95,SW,221,0.0,0.0,85,0.00,,---,0.00,VWS V14.01,2013-07-19 02:51:00,
2013-07-18 22:54:00,77.7,72.8,29.95,SW,221,0.0,0.0,85,0.00,,---,0.00,VWS V14.01,2013-07-19 02:54:00,
2013-07-18 22:55:00,77.7,72.8,29.95,SW,221,0.0,0.0,85,0.00,,---,0.00,VWS V14.01,2013-07-19 02:55:00,
2013-07-18 22:56:00,77.7,72.8,29.95,SW,221,0.0,1.0,85,0.00,,---,0.00,VWS V14.01,2013-07-19 02:56:00,
2013-07-18 22:59:00,77.7,73.2,29.95,SW,221,0.0,0.0,86,0.00,,---,0.00,VWS V14.01,2013-07-19 02:59:00,
2013-07-18 23:00:00,77.7,73.2,29.95,SW,221,0.0,2.0,86,0.00,,---,0.00,VWS V14.01,2013-07-19 03:00:00,
2013-07-18 23:02:00,77.7,73.2,29.95,SW,221,0.0,2.0,86,0.00,,---,0.00,VWS V14.01,2013-07-19 03:02:00,
2013-07-18 23:04:00,77.6,73.1,29.95,SW,221,0.0,0.0,86,0.00,,---,0.00,VWS V14.01,2013-07-19 03:04:00,
2013-07-18 23:05:00,77.6,73.1,29.95,SW,221,0.0,0.0,86,0.00,,---,0.00,VWS V14.01,2013-07-19 03:05:00,
2013-07-18 23:07:00,77.6,73.1,29.95,SW,221,0.0,2.0,86,0.00,,---,0.00,VWS V14.01,2013-07-19 03:07:00,
2013-07-18 23:09:00,77.6,73.1,29.95,SW,221,0.0,1.0,86,0.00,,---,0.00,VWS V14.01,2013-07-19 03:09:00,
2013-07-18 23:10:00,77.6,73.1,29.95,SW,221,0.0,1.0,86,0.00,,---,0.00,VWS V14.01,2013-07-19 03:10:00,
2013-07-18 23:12:00,77.6,73.4,29.95,SW,221,3.0,4.0,87,0.00,,---,0.00,VWS V14.01,2013-07-19 03:12:00,
2013-07-18 23:14:00,77.6,73.4,29.95,SW,221,4.0,4.0,87,0.00,,---,0.00,VWS V14.01,2013-07-19 03:14:00,
2013-07-18 23:15:00,77.6,73.4,29.95,SW,221,1.0,4.0,87,0.00,,---,0.00,VWS V14.01,2013-07-19 03:15:00,
2013-07-18 23:17:00,77.6,73.4,29.95,SW,221,3.0,5.0,87,0.00,,---,0.00,VWS V14.01,2013-07-19 03:17:00,
2013-07-18 23:19:00,77.6,73.4,29.95,SW,221,0.0,0.0,87,0.00,,---,0.00,VWS V14.01,2013-07-19 03:19:00,
2013-07-18 23:20:00,77.4,73.6,29.95,SSW,207,3.0,9.0,88,0.00,,---,0.00,VWS V14.01,2013-07-19 03:20:00,
2013-07-18 23:22:00,77.6,73.8,29.95,SSW,207,0.0,2.0,88,0.00,,---,0.00,VWS V14.01,2013-07-19 03:22:00,
2013-07-18 23:24:00,77.4,73.6,29.95,SSW,207,0.0,0.0,88,0.00,,---,0.00,VWS V14.01,2013-07-19 03:24:00,
2013-07-18 23:25:00,77.4,73.6,29.95,SSW,207,0.0,1.0,88,0.00,,---,0.00,VWS V14.01,2013-07-19 03:25:00,
2013-07-18 23:26:00,77.4,73.6,29.95,SSW,207,0.0,1.0,88,0.00,,---,0.00,VWS V14.01,2013-07-19 03:26:00,
2013-07-18 23:27:00,77.4,73.6,29.95,SSW,207,0.0,2.0,88,0.00,,---,0.00,VWS V14.01,2013-07-19 03:27:00,
2013-07-18 23:29:00,77.4,73.6,29.95,SSW,206,3.0,3.0,88,0.00,,---,0.00,VWS V14.01,2013-07-19 03:29:00,
2013-07-18 23:30:00,77.4,73.6,29.95,SSW,207,1.0,4.0,88,0.00,,---,0.00,VWS V14.01,2013-07-19 03:30:00,
2013-07-18 23:31:00,77.4,73.6,29.95,SSW,207,0.0,4.0,88,0.00,,---,0.00,VWS V14.01,2013-07-19 03:31:00,
2013-07-18 23:32:00,77.4,73.6,29.95,SSW,207,2.0,5.0,88,0.00,,---,0.00,VWS V14.01,2013-07-19 03:32:00,
2013-07-18 23:34:00,77.4,73.9,29.95,SSW,207,1.0,1.0,89,0.00,,---,0.00,VWS V14.01,2013-07-19 03:34:00,
2013-07-18 23:36:00,77.4,73.9,29.95,SSW,207,3.0,3.0,89,0.00,,---,0.00,VWS V14.01,2013-07-19 03:36:00,
2013-07-18 23:37:00,77.4,73.9,29.95,SSW,207,1.0,4.0,89,0.00,,---,0.00,VWS V14.01,2013-07-19 03:37:00,
2013-07-18 23:40:00,77.4,73.9,29.95,SSW,207,0.0,0.0,89,0.00,,---,0.00,VWS V14.01,2013-07-19 03:40:00,
2013-07-18 23:41:00,77.4,73.9,29.95,SSW,207,0.0,3.0,89,0.00,,---,0.00,VWS V14.01,2013-07-19 03:41:00,
2013-07-18 23:42:00,77.4,73.9,29.95,SSW,207,2.0,2.0,89,0.00,,---,0.00,VWS V14.01,2013-07-19 03:42:00,
2013-07-18 23:45:00,77.4,73.9,29.95,SSW,206,3.0,4.0,89,0.00,,---,0.00,VWS V14.01,2013-07-19 03:45:00,
2013-07-18 23:46:00,77.4,73.9,29.95,SSW,206,0.0,3.0,89,0.00,,---,0.00,VWS V14.01,2013-07-19 03:46:00,
2013-07-18 23:47:00,77.4,73.9,29.95,SSW,206,0.0,0.0,89,0.00,,---,0.00,VWS V14.01,2013-07-19 03:47:00,
2013-07-18 23:50:00,77.4,73.9,29.95,SSW,206,0.0,0.0,89,0.00,,---,0.00,VWS V14.01,2013-07-19 03:50:00,
2013-07-18 23:51:00,77.4,73.9,29.95,SSW,206,0.0,0.0,89,0.00,,---,0.00,VWS V14.01,2013-07-19 03:51:00,
2013-07-18 23:52:00,77.2,73.7,29.95,SSW,206,0.0,0.0,89,0.00,,---,0.00,VWS V14.01,2013-07-19 03:52:00,
2013-07-18 23:55:00,77.2,73.7,29.95,SSW,206,0.0,0.0,89,0.00,,---,0.00,VWS V14.01,2013-07-19 03:55:00,
2013-07-18 23:56:00,77.2,73.7,29.95,SSW,206,0.0,0.0,89,0.00,,---,0.00,VWS V14.01,2013-07-19 03:56:00,
2013-07-18 23:57:00,77.2,73.7,29.95,SSW,206,0.0,0.0,89,0.00,,---,0.00,VWS V14.01,2013-07-19 03:57:00,